[{"header": {"dx": 0.06612293990616946, "dy": 0.0552356325346848, "nx": 98, "ny": 59, "la1": 35.046912555036876, "la2": 31.78801023549047, "lo1": -121.43107172385933, "lo2": -114.95102361305473, "refTime": "2026041106", "parameterCategory": 1, "parameterNumber": 2}, "data": [4.12, 3.72, 4.12, 3.45, 2.77, 2.29, 1.65, 1.67, 1.14, 1.14, -0.0, -0.0, -0.79, -0.0, 0.87, 0.57, 2.41, 2.68, 2.48, 1.3, 2.16, 1.8, 2.2, 2.98, 2.4, 2.6, 2.11, 1.55, 0.7, -0.0, -1.9, -2.8, -4.87, -4.47, -3.13, -2.12, -1.9, 0.0, 0.87, 1.6, 2.12, 1.9, 2.84, 3.48, 5.75, 6.64, 7.6, 7.6, 7.03, 6.08, 5.37, 5.37, 5.37, 6.06, 6.06, 6.08, 6.07, 6.0, 5.43, 5.75, 5.86, 6.79, 8.82, 10.25, 10.75, 10.25, 8.91, 7.89, 7.89, 9.49, 10.15, 9.49, 7.89, 5.59, 5.59, 7.71, 8.63, 4.41, 0.0, -2.53, -2.84, -3.16, -3.07, -1.41, -0.81, 0.7, 2.2, 3.07, 4.11, 6.44, 8.3, 9.27, 9.84, 10.8, 11.2, 11.21, 10.25, 7.12, 4.12, 4.12, 4.12, 3.45, 3.45, 3.0, 2.32, 1.8, 1.67, 1.14, 0.53, -0.0, -0.0, -0.0, -0.0, 1.41, 1.8, 2.48, 1.41, 0.81, 1.14, 2.32, 1.99, 2.16, 2.4, 2.2, 1.66, 0.79, 0.66, -0.0, -0.76, -2.4, -3.58, -4.92, -4.02, -2.68, -1.6, 0.0, 1.9, 3.04, 2.6, 3.16, 4.29, 5.05, 6.28, 7.28, 7.21, 6.0, 5.43, 4.46, 4.43, 4.74, 5.43, 6.32, 5.72, 5.82, 5.43, 5.43, 5.75, 5.75, 5.86, 7.21, 8.19, 9.11, 8.91, 9.08, 8.55, 7.47, 7.35, 8.55, 10.55, 10.23, 9.2, 8.3, 6.79, 7.28, 8.19, 4.41, 0.0, -2.53, -2.84, -3.16, -3.07, -1.41, -0.81, 0.7, 2.2, 3.07, 4.11, 6.44, 8.3, 9.27, 9.84, 10.8, 11.2, 11.21, 10.25, 7.12, 4.12, 4.12, 4.12, 3.85, 3.45, 3.0, 2.32, 2.32, 1.67, 1.84, 1.05, -0.0, -0.0, -0.0, -0.0, 0.87, 1.6, 1.8, 1.66, 1.19, 0.81, 1.3, 2.16, 2.26, 3.2, 2.4, 1.4, -0.0, -0.0, -0.0, -0.0, -0.81, -1.88, -2.6, -3.07, -2.54, -1.34, 0.0, 1.26, 2.68, 2.91, 3.45, 5.34, 6.28, 6.55, 6.55, 5.59, 3.74, 2.8, 2.86, 3.49, 4.84, 5.43, 5.43, 4.66, 4.8, 4.8, 5.34, 5.86, 5.86, 6.51, 6.51, 6.79, 6.94, 7.03, 8.3, 9.3, 8.67, 8.05, 8.14, 9.49, 10.15, 10.01, 8.82, 6.79, 7.11, 7.92, 3.07, -1.58, -3.49, -3.14, -2.84, -2.73, -2.4, -1.35, 0.0, 2.04, 2.4, 3.9, 7.02, 8.65, 8.94, 9.3, 9.92, 9.27, 7.71, 6.26, 6.07, 4.12, 4.12, 4.12, 3.85, 3.45, 3.45, 2.8, 2.32, 1.84, 1.84, 1.16, -0.0, -0.0, -0.0, -0.0, -0.0, 0.87, 0.98, 0.79, 1.66, 0.88, 1.13, 1.27, 1.83, 3.33, 3.49, 1.4, -0.0, -0.0, -1.47, -1.55, -1.6, -1.47, -0.0, -0.0, -0.0, -0.0, 1.26, 1.79, 2.24, 2.6, 3.07, 4.66, 5.64, 6.07, 5.59, 3.95, 2.12, 1.7, 2.23, 3.2, 4.66, 4.66, 5.09, 4.15, 4.4, 4.8, 5.34, 5.86, 6.28, 6.07, 5.16, 4.46, 3.79, 5.69, 7.9, 9.48, 10.47, 10.45, 9.45, 8.55, 8.4, 8.63, 7.76, 6.22, 5.36, 7.12, 4.02, -1.24, -4.46, -3.49, -2.84, -2.07, -2.98, -2.4, 0.0, 0.73, 2.47, 4.46, 7.18, 8.27, 8.3, 8.3, 7.07, 4.02, 4.24, 5.86, 6.79, 4.12, 4.12, 4.12, 3.85, 3.45, 3.45, 3.0, 2.8, 2.36, 1.84, 1.7, 0.54, -0.0, -0.0, -0.0, -0.0, 0.87, 0.87, 0.79, 0.73, 1.3, 1.19, 1.41, 1.41, 2.53, 3.76, 1.3, -0.0, -0.0, -1.55, -3.22, -3.9, -3.09, -1.55, -0.0, 2.12, 3.45, 4.89, 3.95, 2.68, 2.6, 2.8, 4.4, 5.34, 5.34, 4.4, 3.32, 2.23, 1.86, 2.8, 2.4, 3.74, 3.74, 4.15, 4.4, 5.05, 5.75, 5.75, 6.28, 6.28, 5.16, 2.86, 2.41, 2.88, 4.83, 6.33, 9.31, 11.06, 12.45, 11.87, 10.28, 8.55, 7.33, 6.94, 6.98, 5.36, 4.93, 2.8, -0.6, -4.09, -4.09, -2.51, -2.07, -2.98, -2.88, -0.7, 0.82, 3.09, 5.28, 6.79, 6.95, 6.32, 5.09, 3.13, 2.84, 5.46, 7.71, 7.89, 4.12, 4.12, 4.12, 4.12, 3.85, 3.45, 3.45, 2.8, 2.16, 2.36, 1.7, 1.07, -0.0, -0.0, -0.0, -0.0, 0.87, 0.98, 0.79, -0.0, 0.88, 0.76, 1.23, 1.32, 1.23, 1.23, 1.23, -0.0, -0.0, -0.0, -2.53, -3.84, -3.22, -2.21, -0.0, 2.2, 4.11, 6.4, 6.28, 2.12, 1.26, 1.98, 4.74, 6.08, 6.08, 5.46, 4.81, 4.19, 3.84, 3.49, 3.83, 3.45, 3.22, 3.83, 4.84, 6.4, 6.4, 6.28, 6.7, 6.28, 3.45, 1.74, 1.55, 2.31, 3.11, 5.99, 8.56, 10.65, 12.72, 14.08, 13.14, 10.55, 9.3, 9.92, 10.87, 10.68, 4.47, 0.0, -1.49, -3.45, -3.48, -2.48, -2.0, -2.98, -2.8, -0.74, 1.49, 4.5, 5.28, 4.96, 3.64, 2.86, 2.68, 1.84, 3.79, 6.4, 8.19, 7.92, 4.12, 4.12, 3.84, 4.12, 4.12, 3.45, 3.45, 2.8, 2.8, 2.36, 2.36, 1.7, 0.79, -0.0, -0.0, -0.0, 0.85, 0.99, 0.87, 0.76, -0.0, -0.0, -0.0, -0.0, 1.18, 1.32, -0.0, -0.0, 1.18, 1.84, -0.0, -1.66, -1.49, -1.24, -0.79, 1.6, 3.48, 5.37, 6.4, 2.23, 0.6, 0.71, 2.84, 5.24, 6.32, 5.43, 6.08, 5.46, 4.19, 5.24, 5.59, 4.19, 4.19, 4.46, 5.34, 5.86, 5.86, 5.59, 5.77, 5.31, 2.23, 0.88, 1.52, 1.52, 3.11, 5.63, 7.9, 9.4, 11.47, 14.47, 15.5, 12.52, 9.82, 10.87, 12.39, 14.42, 10.95, 1.2, -2.21, -2.53, -3.07, -2.88, -2.8, -3.0, -2.26, 0.0, 1.52, 3.8, 3.79, 2.3, 1.61, 1.79, 1.16, 1.41, 3.79, 6.79, 8.82, 8.01, 4.12, 4.12, 4.12, 3.84, 3.84, 3.47, 3.45, 3.22, 3.04, 2.36, 2.36, 1.7, 0.96, 0.98, -0.0, -0.0, -0.0, 0.85, 0.99, 0.85, 0.63, 0.45, -1.2, -0.6, 0.79, 1.19, -0.0, -0.0, 2.16, 2.6, -0.0, -1.14, -1.14, -0.0, -0.0, 2.0, 2.24, 4.41, 6.36, 4.82, 1.6, -0.0, 0.63, 2.97, 4.8, 5.75, 6.44, 5.43, 3.84, 5.01, 3.22, 4.22, 4.84, 5.34, 5.34, 5.59, 5.31, 4.47, 5.36, 2.24, 1.74, 0.76, 0.79, 1.52, 3.06, 4.5, 7.52, 9.27, 10.9, 13.49, 15.59, 14.39, 11.62, 10.02, 10.62, 11.99, 13.49, 6.55, 0.0, -2.21, -2.5, -2.73, -1.94, -1.94, -1.3, 0.0, 1.41, 2.2, 1.88, 1.9, 1.79, 1.2, -0.0, 1.41, 4.46, 7.71, 8.91, 7.56, 4.43, 4.12, 4.12, 4.12, 3.84, 3.84, 3.47, 3.47, 3.04, 2.82, 2.18, 1.73, 1.3, 0.81, 0.88, 0.87, 0.99, 0.99, 0.99, 0.99, 1.4, -0.0, -0.0, -0.0, -0.0, -0.0, -0.0, -0.0, 1.41, 1.19, -0.0, -2.48, -1.41, -0.0, 1.9, 2.68, 1.58, 2.23, 4.47, 4.92, 2.24, -0.0, 0.0, 2.24, 4.02, 4.66, 6.23, 6.13, 5.46, 4.81, 5.37, 3.74, 4.41, 5.31, 5.31, 5.31, 5.31, 4.92, 3.13, 0.95, 0.79, 0.79, 0.76, 1.65, 3.2, 4.56, 8.06, 10.23, 11.62, 13.49, 15.41, 15.27, 13.05, 10.26, 9.39, 9.36, 9.81, 10.28, 4.87, 0.54, -0.6, -2.5, -1.9, -1.2, -0.54, 0.0, 1.2, 1.9, 2.4, 2.68, 1.86, -0.0, -0.0, 1.84, 5.05, 9.26, 9.36, 7.12, 4.71, 4.12, 4.12, 4.12, 4.12, 3.84, 3.47, 3.47, 3.47, 3.08, 2.4, 2.44, 1.11, 0.57, 0.98, 0.87, 0.99, 0.99, 1.6, 1.6, 1.13, 1.6, 1.6, 1.4, -0.0, 1.4, -0.0, -1.2, -0.0, -0.0, -1.58, -3.13, -2.24, 0.0, 1.79, 3.13, 3.39, 2.5, 3.04, 3.13, 2.17, 0.63, 1.34, 1.79, 3.13, 4.38, 5.59, 5.75, 5.82, 5.82, 5.82, 4.24, 4.02, 4.02, 4.41, 4.41, 4.41, 4.41, 1.79, -0.0, -0.0, 0.8, 2.17, 2.35, 3.22, 3.83, 6.98, 10.08, 11.89, 13.32, 14.57, 14.93, 13.7, 11.15, 10.28, 9.62, 8.82, 8.4, 7.76, 3.6, 1.7, 1.86, 0.45, -0.45, 0.0, 0.6, 1.49, 2.0, 2.6, 1.79, 1.26, -0.0, -0.0, 1.58, 4.24, 9.26, 9.81, 7.45, 4.71, 4.71, 4.12, 4.12, 4.12, 4.12, 3.47, 3.47, 3.47, 3.49, 2.84, 2.86, 2.48, 1.13, 1.13, 0.99, 1.74, 1.9, 1.9, 2.15, 2.6, 2.98, 2.98, 3.39, 3.2, 1.9, -0.0, -0.0, -0.0, -0.0, 0.89, -1.79, -1.2, -0.6, 0.0, 2.68, 3.13, 2.68, 2.68, 2.68, 2.12, 0.95, 2.0, 3.13, 4.02, 4.02, 4.92, 4.57, 4.8, 5.43, 5.77, 5.77, 4.81, 3.84, 2.12, 1.6, 1.49, 0.6, -0.0, -0.0, -0.0, 1.65, 2.35, 3.33, 4.74, 5.59, 6.71, 8.36, 10.16, 11.52, 12.87, 13.39, 12.96, 11.62, 11.09, 10.08, 7.56, 4.46, 2.86, 1.49, 0.8, 1.61, 2.84, 1.86, 1.7, 1.34, 1.7, 1.9, 1.86, 1.2, 0.89, 0.63, 0.63, 1.7, 4.02, 9.39, 9.36, 6.55, 4.71, 4.71, 4.11, 4.12, 4.12, 4.12, 4.12, 3.76, 3.76, 3.49, 3.22, 3.2, 2.86, 2.23, 1.61, 1.2, 1.9, 2.15, 2.8, 3.07, 3.53, 3.98, 4.02, 5.36, 4.92, 4.47, 3.2, 1.26, -0.0, 0.89, -0.0, -0.0, 0.89, 0.45, 0.0, 0.89, 1.79, 1.49, 0.95, 1.26, 1.58, 2.53, 2.6, 2.8, 3.58, 3.47, 3.72, 3.48, 3.79, 3.49, 4.12, 4.8, 3.96, 3.73, 3.02, 2.4, 0.99, -2.4, -3.47, -1.6, 0.8, 2.4, 2.64, 4.16, 5.59, 7.06, 7.67, 6.98, 6.21, 8.01, 10.26, 10.28, 8.97, 8.91, 8.63, 6.21, 1.7, -0.57, -0.8, -0.89, -0.0, 0.65, 2.15, 3.79, 4.75, 5.09, 4.3, 3.13, 2.68, 2.68, 2.24, 1.79, 1.34, 2.24, 4.47, 8.49, 7.15, 4.87, 4.71, 4.71, 4.37, 4.11, 4.12, 4.12, 4.12, 4.12, 4.12, 3.83, 3.78, 3.49, 3.48, 2.86, 2.51, 2.21, 2.21, 2.5, 2.91, 3.53, 3.53, 3.98, 4.92, 5.36, 5.81, 5.81, 5.36, 3.98, 2.4, 0.57, -0.0, -0.0, 0.71, 1.0, 1.6, 1.26, 0.71, -0.0, -0.0, 1.2, 2.21, 2.21, 2.21, 1.9, 1.9, 1.41, 1.14, 2.32, 2.32, 2.26, 2.12, 2.11, 1.48, 1.46, 3.36, 4.52, 6.67, 4.71, -0.0, -2.2, -0.0, 3.21, 3.91, 3.2, 3.88, 6.33, 7.25, 6.2, 4.6, 5.3, 10.15, 10.25, 2.6, 0.65, 1.86, 0.45, -2.24, -2.24, -1.2, -0.0, -0.0, 1.4, 2.84, 2.86, 4.65, 7.02, 8.67, 6.9, 6.9, 8.4, 8.67, 6.55, 3.13, 2.68, 5.36, 7.15, 4.92, 3.53, 4.71, 4.71, 4.71, 4.37, 4.11, 4.12, 4.12, 4.12, 4.12, 3.83, 4.11, 3.79, 4.07, 3.48, 3.43, 2.84, 2.79, 2.79, 3.2, 3.82, 3.87, 4.43, 4.88, 5.33, 5.81, 6.26, 6.26, 5.81, 4.34, 2.21, -0.0, -0.0, -0.0, 1.58, 1.9, 1.2, 0.85, 0.85, 1.0, 1.26, 1.26, 1.26, 1.58, 1.6, 1.41, -0.0, -0.0, 1.3, 1.14, 1.1, 1.18, -0.0, -0.0, -0.0, 1.25, 3.15, 5.69, 9.91, 6.7, -0.0, -0.0, 2.23, 2.49, 2.39, 2.41, 3.11, 3.53, 3.73, 5.2, 6.24, 9.63, 13.95, 7.58, -1.34, -2.8, -2.24, -2.68, -1.86, -0.0, 1.33, 2.3, 3.79, 4.73, 4.12, 2.73, 6.39, 9.3, 9.3, 8.59, 10.79, 12.25, 10.38, 7.76, 6.21, 5.81, 5.81, 4.02, 3.58, 4.71, 4.71, 4.71, 4.37, 4.11, 4.12, 4.12, 4.12, 4.12, 3.83, 4.11, 4.11, 3.79, 4.07, 3.73, 3.43, 3.16, 3.14, 3.35, 4.11, 4.11, 4.77, 4.8, 5.34, 5.81, 5.81, 6.26, 6.26, 5.34, 3.6, 1.2, -0.0, 1.58, 2.4, 2.8, 1.9, 1.9, 1.26, 1.58, 1.26, 1.26, 1.9, 1.9, 1.6, 1.19, -0.0, -0.0, -0.0, -0.0, -0.0, -0.0, -0.0, -0.0, -0.0, 1.27, 2.73, 3.76, 7.27, 8.73, 3.61, -0.0, 1.11, 2.13, 2.23, 2.33, 1.16, 1.13, 2.24, 4.65, 5.2, 5.4, 11.08, 16.91, 7.68, -1.9, -4.22, -2.12, -0.71, 0.76, 2.98, 4.74, 6.08, 6.9, 5.69, 1.9, 3.84, 7.06, 8.3, 9.21, 11.26, 12.94, 12.3, 9.89, 7.76, 7.45, 4.92, 3.58, 3.58, 4.71, 4.71, 4.71, 4.71, 4.37, 4.43, 4.12, 4.12, 4.12, 4.43, 4.11, 4.11, 4.11, 4.41, 4.07, 3.73, 3.43, 3.43, 3.43, 4.27, 4.4, 4.9, 5.09, 5.7, 5.78, 5.81, 5.81, 5.81, 5.36, 3.87, 2.21, 1.24, 1.26, 3.13, 2.8, 1.0, 0.63, 0.95, -0.0, -0.0, 0.8, 1.0, 1.4, 1.6, 1.41, -0.0, -0.0, -0.0, -0.0, -0.0, -0.0, -0.0, 1.27, 1.4, 1.4, 2.53, 2.73, 4.74, 5.72, 4.21, 1.55, 1.25, 1.25, 1.25, 1.25, -0.0, -0.0, 2.28, 4.54, 5.69, 4.96, 7.94, 15.09, 18.23, 10.16, 1.79, 1.26, 1.9, 3.22, 4.09, 6.64, 8.4, 8.63, 6.07, 0.95, -1.2, 1.88, 5.46, 8.24, 9.74, 12.8, 10.96, 8.19, 8.19, 9.28, 6.67, 4.47, 4.47, 4.94, 4.71, 4.71, 4.71, 4.71, 4.71, 4.71, 4.43, 4.71, 4.71, 4.37, 4.37, 4.37, 4.65, 4.65, 4.07, 3.48, 3.43, 3.78, 4.0, 4.55, 4.9, 5.31, 5.51, 5.24, 5.33, 4.92, 4.92, 4.47, 3.98, 3.6, 2.91, 2.17, 3.13, 2.23, 1.49, 0.85, -0.0, -0.0, -0.0, -0.0, -0.0, 1.6, 0.85, -0.0, -0.0, -0.0, -0.0, -0.0, -0.0, -0.0, -0.0, 1.6, 2.53, 2.53, 2.84, 4.09, 4.8, 5.6, 5.06, 3.68, 2.32, 2.6, 2.2, -0.0, -1.72, -1.1, -0.0, 3.45, 8.24, 8.94, 9.15, 14.11, 17.96, 16.96, 13.04, 10.91, 11.5, 10.68, 8.4, 7.71, 8.36, 8.05, 3.58, 0.0, -2.24, -0.0, 3.74, 7.89, 11.52, 13.7, 11.42, 7.01, 7.12, 8.46, 7.12, 3.97, 3.97, 4.94, 4.94, 4.71, 4.71, 4.71, 4.71, 4.71, 4.71, 4.71, 4.71, 4.71, 4.37, 4.37, 4.65, 4.65, 4.07, 3.48, 3.48, 4.07, 4.07, 4.4, 4.6, 4.4, 4.55, 5.08, 4.34, 3.58, 3.58, 4.02, 3.98, 4.34, 4.3, 3.87, 3.53, 2.91, 2.21, 0.76, -0.0, -0.0, -0.0, -0.0, -0.0, -0.0, -0.0, -0.0, -0.0, -0.0, -0.0, -0.0, -0.0, -0.0, 1.4, 1.4, 2.53, 2.53, 3.35, 4.24, 4.8, 5.2, 5.01, 3.76, 3.76, 3.79, 1.19, -1.23, -2.47, -2.6, -2.73, 1.6, 8.6, 11.88, 11.6, 13.84, 16.25, 15.19, 12.52, 13.49, 16.09, 17.1, 14.46, 11.75, 10.75, 8.46, -0.45, -2.6, -1.86, 0.0, 2.68, 6.71, 9.39, 11.98, 11.4, 7.57, 5.81, 5.81, 4.87, 4.73, 4.73, 4.94, 4.94, 4.71, 4.71, 4.71, 4.71, 4.71, 4.71, 4.71, 4.71, 4.71, 4.71, 4.65, 4.65, 4.65, 4.84, 3.73, 3.79, 3.79, 4.29, 4.27, 3.6, 2.79, 4.19, 4.84, 5.2, 3.6, 4.38, 4.85, 4.77, 5.24, 5.24, 4.8, 4.34, 3.87, 2.21, -0.0, -0.51, -0.0, -0.0, -0.0, -0.0, -0.0, -0.0, -0.0, -0.0, -0.0, -0.0, -0.0, -0.0, -0.0, 1.6, 1.6, 2.53, 2.48, 3.48, 4.09, 4.8, 4.65, 4.65, 4.65, 4.46, 3.16, -0.0, -1.72, -2.35, -2.6, -1.74, 1.79, 6.14, 9.39, 11.6, 15.03, 17.59, 15.18, 10.95, 10.15, 13.35, 16.63, 18.23, 15.77, 12.37, 4.02, 0.0, -1.2, -0.99, 0.0, 1.9, 6.66, 7.6, 9.81, 11.98, 10.25, 4.92, 3.07, 3.74, 3.74, 3.74, 5.29, 4.94, 4.94, 4.71, 4.71, 4.71, 4.71, 4.71, 4.71, 4.71, 4.71, 4.71, 4.65, 4.65, 4.65, 4.55, 4.07, 3.48, 3.79, 4.46, 5.2, 3.6, 3.07, 4.22, 5.2, 6.16, 6.28, 5.99, 6.04, 6.04, 6.04, 6.16, 5.7, 5.24, 4.77, 3.09, 1.11, -0.0, -0.51, -0.0, -0.0, -0.65, -0.65, -0.65, -0.0, -0.0, -0.0, -0.0, -0.0, -0.0, 1.6, 1.27, 1.41, 1.41, 1.24, 1.9, 4.65, 2.8, 2.8, 4.77, 4.24, 2.53, -0.0, -1.3, -1.6, -2.29, -1.83, -0.0, 2.98, 5.81, 8.49, 10.28, 14.75, 18.71, 18.26, 13.41, 9.81, 9.81, 15.78, 18.39, 18.66, 16.54, 7.89, 0.0, -1.49, -0.6, 0.0, 1.24, 4.3, 6.11, 7.56, 11.18, 10.73, 3.58, 2.4, 4.24, 5.64, 5.64, 5.29, 4.94, 4.94, 4.94, 4.71, 4.71, 4.71, 4.71, 4.71, 4.71, 4.71, 4.71, 5.21, 5.21, 4.84, 4.93, 4.37, 3.78, 3.43, 4.8, 5.75, 4.8, 4.4, 4.6, 5.7, 6.6, 6.94, 7.4, 7.4, 6.94, 6.51, 6.16, 5.7, 5.26, 4.66, 3.78, 1.57, -0.0, -0.0, -0.0, -0.0, -0.0, -0.59, -0.51, -0.0, -0.0, -0.0, -0.0, -0.0, -0.0, -0.0, -0.0, 1.19, 1.19, 2.73, 1.9, 3.22, 3.45, 4.4, 2.8, -0.0, -0.0, -1.19, -1.41, -1.55, -1.66, -1.66, -0.0, 2.4, 5.82, 8.4, 11.06, 13.84, 16.69, 17.59, 15.47, 10.65, 10.8, 11.87, 14.75, 17.27, 18.17, 13.57, 2.6, -1.26, -1.2, 0.0, 0.6, 3.07, 5.44, 6.28, 8.36, 7.6, 3.51, 2.6, 3.97, 6.11, 6.11, 5.29, 5.29, 4.94, 4.94, 4.94, 4.94, 4.94, 4.94, 4.94, 4.71, 4.71, 4.94, 5.21, 5.21, 5.21, 5.08, 4.55, 4.0, 3.88, 4.11, 4.9, 5.31, 5.31, 5.57, 5.99, 6.6, 7.06, 6.97, 6.97, 6.94, 6.94, 6.47, 6.16, 5.7, 5.09, 4.07, 2.4, 0.61, -0.0, -0.0, -0.0, -0.0, -0.0, -0.0, -0.0, -0.0, -0.0, -0.0, -0.0, -0.0, -0.0, -0.0, 1.41, 1.41, 2.73, 3.48, 2.53, 3.16, 3.79, -0.0, -1.2, -2.21, -1.8, -0.79, -0.79, -0.87, -0.87, -0.65, -0.0, 2.4, 5.72, 11.17, 14.58, 11.08, 7.03, 7.28, 6.98, 6.92, 8.57, 9.78, 13.32, 15.49, 16.03, 12.14, 3.95, 0.45, 0.45, 0.45, 2.6, 5.32, 5.81, 5.36, 6.22, 4.43, 3.13, 4.02, 5.81, 5.81, 5.49, 5.49, 5.29, 4.94, 4.94, 4.94, 4.94, 4.94, 4.94, 4.94, 4.94, 4.94, 5.21, 5.21, 5.21, 5.47, 5.08, 4.55, 4.27, 4.27, 4.4, 4.9, 5.31, 5.57, 5.99, 6.47, 6.94, 6.94, 6.94, 6.94, 6.94, 6.94, 6.6, 6.16, 5.57, 4.37, 2.8, 1.14, 0.54, -0.0, -0.0, -0.0, -0.0, -0.0, 0.61, 0.63, 1.13, -0.0, -0.0, -0.0, -0.0, -0.0, 1.27, 2.23, 2.48, 2.73, 2.53, 3.22, 1.98, -0.0, -1.6, -2.15, -1.6, -0.7, -0.79, -0.0, -0.0, -0.71, -1.4, -1.52, -0.0, 7.96, 13.07, 0.0, -1.27, 2.21, 3.49, 4.02, 5.04, 6.36, 8.58, 11.4, 13.32, 13.96, 12.37, 7.45, 2.17, 1.24, 2.84, 5.37, 6.54, 7.06, 6.64, 5.2, 3.58, 4.02, 5.36, 5.36, 5.75, 5.75, 5.75, 5.58, 4.94, 4.94, 4.94, 5.29, 5.29, 5.29, 4.94, 4.94, 5.21, 5.21, 5.37, 5.6, 5.08, 5.08, 4.8, 4.4, 4.8, 4.9, 5.31, 5.81, 5.81, 6.3, 6.94, 6.94, 6.94, 6.94, 6.94, 6.79, 6.51, 6.16, 5.57, 4.71, 3.42, 2.29, 1.12, 0.58, -0.0, -0.0, -0.0, -0.0, 0.54, 1.07, 1.3, -0.0, -0.0, -0.0, -0.0, 1.13, 1.8, 2.53, 2.84, 2.48, 1.66, 1.7, 2.32, 1.74, -0.0, -1.24, -0.76, -0.0, -0.7, -0.0, -0.0, -0.0, -1.4, -2.84, -1.8, 16.41, 21.8, 12.04, 4.77, 5.2, 6.36, 5.59, 4.44, 4.05, 4.8, 7.96, 10.18, 11.99, 12.52, 9.39, 3.32, 1.84, 2.98, 3.69, 6.68, 7.33, 8.11, 7.47, 4.73, 4.87, 5.32, 5.32, 5.75, 5.75, 5.75, 5.58, 5.21, 5.21, 4.94, 5.29, 5.29, 5.29, 5.29, 4.94, 5.21, 5.21, 5.6, 5.6, 5.6, 5.08, 4.55, 4.55, 4.8, 4.9, 5.31, 5.81, 5.81, 6.3, 6.79, 6.94, 6.94, 6.94, 6.94, 6.79, 6.94, 6.04, 5.81, 4.74, 3.83, 2.73, 1.73, 1.1, 0.57, 0.57, -0.0, -0.0, 0.54, 1.19, 1.73, 1.76, 1.13, 0.53, 0.65, 1.6, 3.2, 3.2, 3.2, 2.53, 1.41, -0.0, 1.19, 3.45, 2.48, -0.0, -0.0, -0.0, -0.0, -0.0, -0.0, -0.0, -0.7, -0.6, 4.02, 11.06, 18.6, 18.71, 15.67, 9.58, 5.05, 4.95, 5.2, 3.21, 2.76, 5.0, 8.24, 10.26, 10.43, 4.02, 1.88, 1.41, 1.47, 2.0, 3.78, 7.59, 9.19, 9.2, 7.2, 5.94, 5.64, 5.64, 5.75, 5.75, 5.75, 5.75, 5.21, 5.21, 5.21, 5.29, 5.29, 5.29, 5.29, 4.94, 5.21, 5.37, 6.0, 6.0, 5.6, 5.6, 5.08, 4.55, 4.55, 4.9, 5.31, 5.81, 5.81, 6.3, 6.3, 6.79, 6.94, 6.94, 6.94, 6.79, 6.79, 6.47, 5.6, 5.06, 4.05, 3.37, 2.37, 1.71, 1.18, 1.18, 1.1, 1.12, 0.59, 1.08, 1.76, 1.8, 1.6, 1.2, 1.24, 1.86, 3.2, 3.2, 3.2, 2.84, -0.0, -0.0, -0.0, 1.08, 3.49, 2.2, -0.0, -0.0, -0.0, -0.0, -0.0, -0.0, -0.0, 0.99, 3.9, 8.6, 12.15, 16.11, 18.66, 18.08, 9.18, 3.47, 2.35, 1.55, 1.56, 3.53, 6.76, 7.61, 4.73, 1.88, 1.55, 1.35, 1.47, 1.32, 2.99, 7.85, 9.84, 10.35, 9.45, 8.55, 8.25, 8.25, 5.75, 5.75, 5.75, 5.75, 5.58, 5.21, 5.21, 5.21, 5.29, 5.29, 5.29, 5.58, 5.75, 5.75, 6.0, 6.0, 6.0, 5.6, 5.08, 5.08, 4.55, 5.31, 5.31, 5.81, 5.81, 6.3, 6.3, 6.79, 6.79, 6.94, 6.94, 6.94, 6.51, 6.3, 5.49, 4.75, 4.46, 4.03, 3.81, 2.75, 1.65, 1.12, 1.8, 1.65, 1.7, 1.23, 1.6, 1.84, 1.61, 1.2, 1.26, 1.86, 2.4, 2.91, 3.58, 1.66, -0.0, -0.0, -0.87, -0.0, 1.41, 2.4, 1.3, -0.0, -0.0, -0.0, -0.0, -0.0, -0.0, 2.84, 4.38, 6.21, 7.89, 10.29, 13.74, 19.98, 17.69, 3.07, -1.47, -0.61, 0.0, 0.7, 1.84, 1.49, 1.24, 1.49, 2.0, 2.11, 2.29, 1.47, 2.04, 5.64, 10.55, 11.88, 11.37, 11.3, 11.73, 11.73, 5.75, 5.75, 5.75, 5.75, 5.75, 5.21, 5.21, 5.58, 5.49, 5.49, 5.29, 5.75, 5.75, 5.75, 6.0, 6.0, 6.0, 5.6, 5.6, 5.08, 5.08, 5.31, 5.31, 5.81, 5.81, 6.3, 6.3, 6.72, 6.79, 6.79, 6.79, 6.94, 6.51, 6.3, 5.29, 4.75, 4.46, 4.46, 4.46, 3.42, 1.67, 1.16, 1.88, 2.61, 2.86, 2.51, 1.61, 1.88, 1.2, 1.0, 0.71, 1.49, 1.88, 2.23, 2.48, 1.55, 1.08, -0.0, -0.0, -0.0, 0.87, 1.66, 0.88, -0.0, -0.0, -0.0, -0.0, -0.0, 0.45, 2.12, 4.85, 5.36, 4.38, 4.47, 8.14, 15.36, 22.47, 12.79, -0.8, -2.6, -1.9, -0.54, -0.0, 0.65, 2.0, 2.73, 2.11, 2.29, 3.55, 2.88, 2.3, 4.74, 10.29, 12.01, 12.59, 13.05, 13.33, 13.33, 5.75, 5.75, 5.75, 5.75, 5.75, 5.75, 5.58, 5.75, 5.75, 5.49, 5.75, 5.75, 5.75, 5.75, 6.0, 6.0, 6.1, 6.0, 5.6, 5.08, 5.08, 5.08, 5.31, 5.81, 5.88, 6.3, 6.3, 6.79, 6.79, 6.79, 6.94, 6.94, 6.51, 6.3, 5.29, 4.75, 4.47, 4.47, 4.47, 4.1, 2.36, 1.08, 1.58, 2.53, 2.98, 2.86, 1.61, 0.54, 0.61, 0.65, 0.61, 1.16, 1.84, 1.8, 1.8, 1.8, 1.27, -0.0, -0.0, -0.0, 0.76, 0.79, -0.0, -0.0, -0.0, -0.0, -0.0, -0.0, 0.0, 0.63, 4.92, 7.15, 4.8, 1.47, 5.37, 12.58, 17.88, 20.72, 13.05, 0.89, -1.86, -0.51, 0.51, 2.18, 3.97, 4.56, 3.55, 3.64, 4.36, 4.74, 3.43, 4.74, 8.11, 11.85, 13.05, 13.86, 13.86, 13.86, 6.28, 6.28, 5.75, 5.75, 5.75, 5.75, 5.75, 5.75, 5.75, 5.75, 5.75, 5.75, 5.75, 5.75, 6.0, 6.1, 6.1, 6.1, 5.6, 5.6, 5.08, 5.08, 5.31, 5.4, 5.81, 6.3, 6.3, 6.79, 6.79, 6.79, 6.94, 6.94, 6.51, 6.3, 5.49, 5.06, 4.75, 4.75, 5.08, 4.47, 2.82, 1.73, 1.11, 1.58, 2.2, 3.22, 2.53, 1.13, 1.11, 1.58, 1.8, 2.23, 1.84, 1.88, 1.88, 1.9, 1.24, 0.71, -0.0, -0.0, 0.76, 0.79, -0.0, -0.0, -0.0, -0.0, 0.73, 0.85, 0.0, 0.0, 1.26, 7.15, 8.05, 4.65, 5.3, 9.56, 13.07, 15.2, 19.73, 14.67, 1.86, -0.89, 0.53, 3.21, 5.09, 6.28, 6.32, 6.01, 6.0, 5.72, 5.38, 6.44, 9.05, 11.34, 12.66, 14.11, 14.84, 14.84, 6.28, 6.28, 5.89, 5.75, 5.75, 5.75, 5.75, 5.75, 5.75, 5.75, 5.75, 5.75, 5.75, 5.75, 6.0, 6.1, 6.1, 6.3, 6.0, 5.6, 5.08, 5.08, 5.31, 5.31, 5.81, 6.3, 6.36, 6.79, 6.3, 6.47, 6.47, 6.51, 6.51, 6.1, 5.86, 5.06, 5.06, 5.06, 5.06, 4.75, 3.47, 2.18, 1.73, 1.08, 1.73, 2.6, 3.22, 2.86, 2.22, 2.48, 2.51, 2.79, 2.8, 2.23, 2.12, 1.7, 1.6, 0.71, -0.0, -0.0, 0.87, 0.87, 0.87, 1.0, -0.0, -1.9, -0.85, 2.4, 3.79, 2.24, 0.0, 4.02, 9.26, 9.39, 6.95, 7.44, 9.9, 11.18, 14.28, 20.05, 14.29, 2.91, 1.24, 3.47, 6.32, 8.0, 8.18, 7.54, 6.7, 6.32, 6.32, 7.2, 8.76, 11.09, 13.21, 14.13, 14.61, 14.61, 6.28, 6.28, 6.28, 5.75, 5.75, 5.75, 5.75, 5.75, 5.75, 5.75, 5.75, 5.75, 5.75, 6.0, 6.1, 6.1, 6.3, 6.3, 6.3, 5.81, 5.6, 5.08, 5.31, 5.31, 5.99, 6.47, 6.47, 6.3, 6.79, 5.99, 6.04, 6.04, 6.47, 6.51, 6.03, 5.59, 5.06, 5.06, 5.06, 4.45, 3.47, 2.16, 1.7, 1.7, 1.73, 2.44, 2.86, 3.12, 2.86, 2.51, 2.23, 2.79, 3.07, 2.17, 1.79, 1.34, 1.26, 0.61, 0.57, 0.57, 0.88, 0.87, 0.99, 0.6, -0.0, -0.95, -2.54, -0.0, 4.8, 5.64, 2.24, 2.0, 6.71, 12.31, 10.62, 7.02, 6.06, 7.28, 10.93, 16.52, 18.33, 10.73, 3.51, 3.88, 6.28, 8.51, 9.01, 8.1, 6.4, 5.69, 6.13, 7.28, 8.84, 10.98, 13.09, 14.03, 14.49, 14.49, 6.28, 6.28, 6.28, 5.89, 5.75, 5.75, 5.75, 5.75, 5.75, 5.75, 5.75, 5.75, 5.75, 5.75, 6.1, 6.1, 6.3, 6.3, 6.3, 5.81, 5.6, 5.08, 5.31, 5.31, 5.99, 6.47, 6.47, 6.51, 6.47, 6.94, 5.99, 6.04, 6.47, 6.51, 6.03, 5.59, 5.59, 5.35, 5.01, 4.12, 3.45, 2.8, 2.16, 2.36, 2.4, 2.44, 2.86, 2.86, 2.86, 2.51, 2.23, 2.23, 2.84, 2.53, 1.88, 1.84, 1.23, 1.23, 1.08, 1.08, 1.23, 0.87, 1.13, 0.57, -0.0, -0.0, -0.8, -1.34, 2.24, 5.2, 4.38, 3.58, 4.8, 11.15, 15.65, 9.72, 2.5, 3.95, 9.36, 14.29, 16.08, 13.34, 8.46, 5.32, 6.61, 7.87, 8.79, 8.21, 6.07, 3.32, 5.31, 7.15, 9.39, 11.18, 12.96, 14.22, 14.23, 14.23, 6.51, 6.51, 6.51, 5.89, 5.89, 5.75, 5.75, 5.75, 5.75, 5.75, 5.75, 5.75, 5.75, 5.75, 6.1, 6.1, 6.3, 6.3, 6.3, 6.3, 5.81, 5.31, 5.31, 5.31, 5.99, 6.47, 6.47, 6.51, 6.51, 6.61, 6.61, 6.6, 6.47, 6.1, 6.28, 5.86, 5.59, 5.35, 4.74, 3.84, 3.22, 2.8, 2.8, 2.82, 2.2, 2.48, 2.86, 3.16, 2.84, 2.51, 2.23, 2.51, 2.23, 2.48, 2.22, 2.44, 1.73, 1.76, 1.08, 1.23, 1.19, -0.0, -0.0, -0.0, -0.0, -0.0, -0.0, -0.0, 1.79, 4.24, 5.2, 5.81, 6.58, 9.75, 14.3, 12.94, 6.71, 5.36, 9.83, 14.3, 16.09, 15.18, 12.05, 8.94, 7.6, 7.6, 8.03, 7.13, 4.02, 3.13, 3.13, 6.51, 8.84, 10.98, 12.33, 13.86, 14.3, 14.3, 6.51, 6.51, 6.51, 6.51, 6.1, 6.0, 5.75, 5.75, 5.75, 5.89, 5.89, 5.89, 5.75, 6.0, 6.1, 6.3, 6.3, 6.3, 6.3, 6.3, 5.81, 5.31, 5.31, 5.57, 5.99, 6.04, 6.47, 6.51, 6.61, 6.61, 6.61, 6.6, 6.04, 6.1, 5.75, 5.49, 5.86, 5.01, 4.74, 3.47, 3.04, 3.47, 3.47, 3.08, 2.86, 2.51, 2.84, 2.84, 2.84, 2.51, 2.51, 2.23, 2.23, 2.48, 2.22, 2.22, 1.76, 1.8, 1.27, 0.59, 0.57, -0.0, -0.0, -0.0, -0.0, 1.4, 0.6, 0.63, 1.79, 3.6, 5.34, 7.21, 8.94, 10.16, 10.7, 11.08, 9.83, 9.26, 12.07, 14.73, 15.63, 14.74, 12.52, 9.39, 7.15, 5.81, 4.92, 3.13, 2.24, 2.17, 2.91, 3.45, 7.47, 9.6, 10.6, 11.28, 13.84, 13.84, 6.51, 6.51, 6.51, 6.51, 6.1, 6.1, 6.0, 5.75, 5.89, 5.89, 5.89, 5.89, 5.89, 6.1, 6.1, 6.3, 6.72, 6.36, 6.3, 6.3, 5.81, 5.4, 5.31, 5.57, 5.99, 6.04, 6.47, 6.51, 6.61, 6.61, 6.23, 6.23, 6.04, 5.81, 6.0, 5.75, 5.49, 5.01, 4.74, 3.47, 3.04, 3.22, 3.47, 3.22, 3.48, 2.84, 2.53, 2.23, 2.51, 2.23, 2.23, 2.23, 2.23, 2.23, 2.23, 1.8, 1.6, 1.6, 1.13, 0.59, 0.59, 0.59, -0.0, -0.0, 1.2, 2.8, 1.2, 1.2, 0.89, 2.54, 5.64, 7.21, 10.47, 10.7, 8.94, 7.11, 9.33, 11.95, 15.01, 16.54, 15.2, 11.6, 8.46, 4.92, 2.24, 1.79, 1.79, 1.2, 1.2, 1.34, 2.15, 2.53, 5.46, 7.6, 9.18, 10.1, 12.33, 12.33, 6.51, 6.51, 6.51, 6.51, 6.1, 6.1, 6.1, 6.1, 6.1, 5.89, 5.89, 5.89, 6.1, 6.1, 6.1, 6.3, 6.79, 6.51, 6.47, 6.3, 5.81, 5.4, 5.31, 5.57, 5.99, 6.04, 6.51, 6.94, 6.61, 6.68, 6.23, 6.23, 5.99, 5.81, 5.6, 5.21, 5.29, 5.01, 4.43, 3.47, 3.49, 3.49, 3.49, 4.01, 3.49, 3.43, 2.84, 2.23, 2.51, 2.48, 2.86, 2.86, 2.23, 2.51, 2.51, 1.84, 1.84, 1.84, 1.13, 0.59, 0.59, -0.0, -0.0, 0.85, 1.9, 2.8, 1.2, 1.6, 1.2, 2.97, 4.22, 6.21, 9.2, 11.62, 7.15, 4.8, 5.31, 11.6, 16.92, 18.2, 15.95, 11.54, 6.26, 1.79, 0.45, 0.63, 1.26, 1.26, 1.26, 1.7, 2.12, 2.21, 3.14, 6.07, 7.2, 8.67, 9.68, 11.09, 6.51, 6.51, 6.1, 6.1, 6.1, 6.1, 6.1, 6.1, 6.1, 6.1, 6.1, 6.1, 6.1, 6.1, 6.3, 6.3, 6.3, 6.51, 6.47, 6.47, 5.81, 5.81, 5.57, 5.57, 5.99, 6.47, 6.51, 7.06, 6.61, 6.68, 6.26, 6.23, 5.7, 5.57, 5.31, 4.84, 4.94, 4.71, 4.43, 3.83, 3.22, 2.84, 2.84, 4.29, 4.43, 4.11, 3.16, 2.51, 2.23, 2.86, 2.86, 2.86, 3.16, 2.51, 2.51, 2.07, 1.6, 1.6, 1.13, 0.59, 0.59, -0.0, -0.0, 1.0, 1.58, 2.8, 2.53, 1.26, 1.86, 2.53, 2.3, 4.02, 8.15, 13.23, 13.07, 5.75, 2.4, 8.67, 14.59, 15.63, 14.47, 12.66, 8.84, 2.68, 0.45, 1.2, 2.0, 2.4, 2.49, 2.63, 2.68, 3.07, 3.14, 6.07, 7.03, 7.85, 8.8, 9.68, 6.3, 6.3, 6.1, 6.1, 6.1, 6.1, 6.1, 6.1, 6.1, 6.1, 6.1, 6.1, 6.1, 6.1, 6.3, 6.3, 6.3, 6.51, 6.47, 6.47, 6.04, 5.99, 5.57, 5.57, 5.99, 6.47, 6.51, 7.06, 6.68, 6.71, 6.71, 6.23, 5.7, 5.51, 4.9, 4.93, 5.21, 4.94, 4.71, 4.11, 3.49, 3.12, 2.84, 3.22, 4.65, 4.74, 4.11, 2.86, 2.86, 2.86, 2.86, 3.16, 2.84, 2.84, 2.23, 2.23, 1.8, 1.13, 1.13, 0.59, 0.59, 0.59, 0.65, 1.6, 1.4, 2.53, 1.26, 1.86, 1.24, 0.85, 0.81, 2.4, 6.28, 10.55, 14.47, 9.2, 3.11, 3.25, 8.67, 10.7, 10.98, 11.09, 11.28, 8.01, 3.58, 2.24, 3.13, 3.13, 3.58, 4.02, 3.97, 4.0, 5.09, 7.07, 7.67, 7.67, 7.92, 8.8, 6.3, 6.3, 6.3, 6.3, 6.1, 6.1, 6.1, 6.1, 6.1, 6.51, 6.51, 6.1, 6.1, 6.3, 6.3, 6.3, 6.47, 6.51, 6.51, 6.47, 6.04, 5.99, 5.57, 5.57, 6.14, 6.6, 6.61, 7.06, 6.68, 6.71, 6.71, 6.23, 5.7, 5.09, 4.8, 4.93, 4.84, 5.21, 4.94, 4.71, 3.83, 3.22, 3.12, 3.12, 4.11, 5.06, 4.74, 3.83, 3.49, 3.15, 2.86, 2.84, 2.84, 2.84, 2.23, 2.23, 1.8, 1.27, 1.13, 0.59, 0.59, 0.59, -0.0, -0.0, 1.6, 1.8, 1.58, 3.16, 0.71, 0.7, 0.7, 1.83, 5.01, 7.76, 11.12, 16.17, 10.27, 2.07, 1.47, 4.02, 7.33, 11.2, 14.11, 13.64, 10.26, 5.36, 3.07, 3.53, 4.87, 6.07, 6.54, 6.64, 7.32, 8.67, 9.05, 8.06, 7.69, 7.69, 6.3, 6.3, 6.3, 6.3, 6.3, 6.1, 6.1, 6.1, 6.1, 6.51, 6.51, 6.1, 6.3, 6.3, 6.3, 6.47, 6.51, 6.51, 6.51, 6.47, 6.04, 5.99, 5.57, 5.57, 6.14, 6.6, 6.61, 7.06, 6.68, 6.71, 6.71, 6.68, 5.7, 4.9, 4.55, 5.08, 5.21, 5.21, 4.94, 4.43, 4.12, 3.83, 3.22, 3.49, 3.79, 4.41, 4.43, 4.12, 3.49, 3.48, 2.86, 2.84, 2.84, 2.84, 2.51, 2.23, 1.8, 1.27, 1.27, 1.13, 0.59, 0.59, 0.61, 1.6, 1.6, 2.84, 2.84, 2.23, 0.85, 0.65, 0.85, 1.6, 4.46, 6.4, 8.15, 12.62, 17.66, 13.99, 2.17, 0.45, 5.69, 12.39, 16.92, 18.51, 15.53, 8.49, 3.07, 3.45, 5.6, 7.2, 8.4, 8.88, 8.93, 9.04, 8.03, 7.02, 7.02, 7.02, 6.3, 6.3, 6.3, 6.3, 6.3, 6.1, 6.1, 6.1, 6.1, 6.1, 6.3, 6.3, 6.3, 6.3, 6.3, 6.47, 6.51, 6.51, 6.51, 6.47, 6.04, 5.99, 5.57, 5.7, 6.16, 6.6, 6.61, 7.13, 6.68, 6.71, 7.15, 6.68, 5.99, 5.08, 5.08, 5.47, 5.37, 5.58, 5.29, 5.01, 4.43, 4.12, 3.83, 3.49, 3.79, 4.07, 4.11, 4.11, 4.11, 3.49, 2.86, 2.86, 2.84, 2.51, 2.51, 2.23, 1.8, 1.27, 1.27, 1.13, 0.59, 0.59, 0.59, 1.27, 1.8, 2.84, 2.84, 1.27, 0.71, 0.71, 0.99, 1.74, 3.6, 6.28, 8.14, 10.45, 14.68, 18.15, 13.89, 6.94, 6.94, 11.99, 16.74, 19.51, 18.08, 10.98, 3.07, 2.79, 5.72, 8.3, 9.27, 9.52, 8.94, 7.97, 6.95, 6.32, 6.32, 6.32, 6.3, 6.3, 6.3, 6.3, 6.3, 6.3, 6.3, 6.3, 6.3, 6.3, 6.3, 6.3, 6.3, 6.3, 6.47, 6.51, 6.51, 6.61, 6.61, 6.6, 6.16, 6.14, 5.7, 5.7, 6.16, 6.6, 6.68, 7.13, 6.68, 6.71, 6.71, 6.61, 5.81, 5.47, 5.47, 5.37, 5.75, 5.49, 5.29, 5.01, 4.43, 4.43, 4.12, 4.11, 4.11, 3.79, 4.11, 4.11, 4.11, 3.49, 3.48, 2.86, 2.23, 2.51, 2.51, 1.8, 1.6, 1.13, 1.13, 1.13, 0.59, 0.59, 1.27, 1.27, 1.55, 1.41, 2.84, 1.26, 0.8, 0.8, 1.6, 2.6, 3.47, 5.59, 7.42, 9.06, 10.95, 14.3, 14.7, 12.51, 10.29, 11.85, 15.72, 18.09, 17.88, 12.92, 5.32, 2.73, 5.21, 6.98, 8.94, 6.68, 6.68, 6.64, 5.59, 5.0, 5.0, 5.0, 6.51, 6.51, 6.47, 6.3, 6.3, 6.3, 6.3, 6.3, 6.3, 6.3, 6.3, 6.3, 6.3, 6.47, 6.51, 6.51, 6.61, 6.61, 6.61, 6.61, 6.16, 6.14, 5.7, 6.14, 6.23, 6.68, 6.68, 6.68, 6.71, 6.71, 6.71, 6.16, 5.81, 5.6, 5.6, 5.75, 5.75, 5.49, 5.29, 5.01, 4.43, 4.43, 4.43, 4.11, 4.11, 4.11, 4.11, 4.11, 3.79, 3.79, 3.48, 2.86, 2.23, 2.51, 2.51, 1.6, 1.6, 1.13, 1.13, 0.59, 0.66, 0.57, 0.57, 1.19, 1.08, 1.41, 1.8, 1.26, 1.26, 0.8, 1.9, 2.98, 3.6, 5.09, 6.28, 7.63, 9.49, 12.04, 12.47, 10.9, 11.52, 13.51, 15.03, 17.07, 18.59, 13.15, 5.36, 3.64, 4.46, 6.4, 5.93, 3.48, 3.72, 3.9, 3.9, 3.64, 3.64, 3.64, 6.51, 6.51, 6.47, 6.47, 6.47, 6.3, 6.3, 6.3, 6.3, 6.3, 6.3, 6.3, 6.47, 6.51, 6.51, 6.61, 6.61, 6.61, 6.61, 6.61, 6.16, 6.14, 5.7, 6.23, 6.23, 6.68, 6.68, 6.68, 6.71, 6.71, 6.68, 6.16, 5.81, 5.6, 5.6, 5.75, 5.75, 5.49, 5.29, 5.29, 4.71, 4.43, 4.43, 4.71, 4.11, 4.11, 4.11, 3.79, 3.79, 4.07, 3.48, 3.15, 2.86, 2.51, 2.51, 1.84, 1.13, 1.13, 0.59, 0.59, 0.57, -0.0, -0.0, -0.0, 0.54, -0.0, 1.6, 1.6, 1.6, 0.57, 1.26, 1.74, 3.22, 4.6, 5.75, 6.4, 8.0, 10.23, 10.29, 9.27, 10.9, 13.76, 14.74, 17.38, 19.74, 10.38, 1.7, 1.33, 2.88, 1.24, 1.26, 1.24, 1.16, 2.07, 2.98, 2.98, 2.98, 2.98, 6.51, 6.51, 6.51, 6.47, 6.47, 6.47, 6.47, 6.3, 6.3, 6.47, 6.47, 6.47, 6.51, 6.51, 6.51, 6.61, 6.61, 6.61, 6.61, 6.61, 6.61, 6.16, 6.23, 6.23, 6.68, 6.68, 6.68, 6.71, 6.71, 6.71, 6.23, 6.16, 5.99, 5.81, 6.0, 5.75, 5.75, 5.49, 5.29, 5.29, 4.71, 4.71, 4.71, 4.71, 4.71, 4.11, 4.11, 4.11, 3.79, 4.07, 3.79, 3.48, 2.86, 2.51, 2.23, 1.84, 1.13, 1.13, 0.59, 0.66, -0.0, -0.0, -0.0, -0.0, -0.0, -0.0, 1.27, 1.27, 1.6, 0.8, 0.57, 0.8, 1.58, 3.16, 4.54, 5.46, 6.82, 8.06, 9.0, 8.6, 9.9, 12.52, 12.84, 16.27, 21.92, 8.49, -2.0, -1.6, 0.89, 0.45, 0.0, 0.0, 0.65, 0.61, 1.33, 1.16, 1.16, 1.16, 6.51, 6.51, 6.51, 6.51, 6.47, 6.47, 6.47, 6.47, 6.47, 6.47, 6.47, 6.51, 6.51, 6.61, 6.61, 6.61, 6.61, 6.61, 6.68, 6.68, 6.61, 6.23, 6.23, 6.23, 6.68, 6.68, 6.71, 7.15, 6.71, 6.71, 6.23, 6.16, 5.99, 5.81, 6.0, 5.75, 5.75, 5.49, 5.29, 5.29, 4.94, 4.71, 4.71, 4.71, 4.71, 4.37, 4.11, 4.11, 3.79, 4.07, 4.07, 3.48, 2.86, 3.16, 2.51, 1.84, 1.13, 1.13, 0.59, 0.59, -0.0, -0.0, -0.55, -1.16, -1.19, -0.0, -0.0, 0.87, 0.85, 0.71, 0.71, 0.8, 1.26, 1.58, 2.53, 4.11, 4.74, 5.69, 7.18, 9.23, 10.28, 10.55, 10.86, 14.76, 23.63, 13.6, -5.05, -0.61, 2.0, 3.48, 1.2, -0.57, 0.0, 0.0, 0.0, 0.0, 0.0, 0.0, 6.61, 7.06, 6.61, 6.61, 6.51, 6.47, 6.47, 6.47, 6.47, 6.47, 6.47, 6.51, 6.61, 6.61, 6.61, 6.61, 6.68, 6.68, 6.68, 6.68, 6.68, 6.23, 6.23, 6.23, 6.71, 6.71, 7.15, 7.15, 6.71, 6.71, 6.23, 6.16, 5.99, 5.81, 6.0, 5.75, 5.75, 5.49, 5.29, 5.29, 5.29, 4.71, 4.71, 4.71, 4.71, 4.71, 4.37, 4.11, 4.11, 4.07, 4.07, 3.48, 3.48, 2.84, 2.51, 1.6, 1.13, 1.13, 0.59, -0.0, -0.0, -0.0, -1.23, -1.73, -1.73, -1.66, -0.0, -0.0, -0.0, 0.7, 0.76, 1.49, 0.8, 0.8, 0.71, 2.3, 3.72, 4.36, 6.32, 8.6, 9.92, 9.92, 9.92, 14.3, 23.47, -0.0, -5.36, -1.33, 2.07, 6.96, 5.6, 0.63, -1.26, -0.95, -0.63, 0.0, 0.0, 0.0, 7.06, 7.06, 6.61, 6.61, 6.61, 6.47, 6.47, 6.47, 6.47, 6.47, 6.61, 6.61, 6.61, 6.61, 6.61, 6.68, 6.68, 6.68, 6.68, 6.68, 6.68, 6.23, 5.79, 6.26, 6.71, 6.71, 7.15, 6.71, 6.71, 6.26, 6.23, 6.16, 6.04, 5.81, 5.6, 6.0, 5.75, 5.49, 5.29, 5.29, 5.29, 4.94, 4.71, 4.71, 4.71, 4.71, 4.37, 4.37, 4.11, 4.07, 4.07, 3.73, 3.48, 2.86, 2.23, 1.8, 1.13, 1.13, 0.59, -0.0, -0.0, -0.0, -1.11, -2.44, -2.44, -2.23, -1.8, -0.76, -0.0, -0.0, 0.7, 1.66, 1.6, -0.0, -0.0, 0.7, 2.98, 4.01, 4.65, 6.68, 9.3, 10.29, 11.44, 16.05, 14.79, -0.0, -4.66, -2.4, -0.0, 2.4, 5.6, 2.91, 0.0, -0.63, -0.63, 0.0, 0.0, 0.0, 7.06, 7.06, 6.61, 6.61, 6.61, 6.6, 6.6, 6.6, 6.6, 6.61, 6.61, 6.61, 6.61, 6.68, 6.68, 6.68, 6.68, 6.68, 6.68, 6.68, 6.68, 6.23, 5.81, 6.26, 6.71, 7.15, 7.15, 6.71, 6.71, 6.23, 6.23, 6.16, 6.04, 5.88, 5.6, 6.0, 5.75, 5.75, 5.29, 5.29, 5.29, 4.94, 4.94, 4.71, 4.71, 4.71, 4.71, 4.37, 4.37, 4.41, 4.07, 4.07, 3.48, 2.86, 2.86, 2.23, 1.6, 1.13, 0.59, -0.0, -0.0, -0.0, -1.13, -2.48, -2.86, -2.86, -2.41, -1.74, -0.8, -0.71, -0.0, 0.65, 2.07, 1.33, -0.0, 0.76, 2.2, 3.9, 5.37, 6.06, 7.68, 10.29, 13.04, 21.67, 5.86, -3.07, -2.5, -2.4, -1.49, -0.0, 2.21, 4.73, 3.32, 1.7, 0.63, 0.0, 0.0, 0.0, 7.06, 7.06, 6.61, 6.61, 6.61, 6.6, 6.6, 6.6, 6.61, 6.61, 6.61, 6.68, 6.68, 6.68, 6.68, 6.68, 6.68, 6.68, 6.68, 6.68, 6.68, 6.23, 5.81, 6.26, 6.71, 7.15, 7.15, 6.71, 6.26, 6.23, 6.23, 6.16, 6.16, 6.04, 5.81, 5.6, 5.75, 5.75, 5.75, 5.75, 5.29, 5.29, 4.94, 4.94, 4.94, 4.71, 4.71, 4.71, 4.37, 4.65, 4.41, 4.07, 3.48, 3.16, 2.86, 2.23, 1.6, 1.13, 0.59, 0.51, -0.0, -0.0, -0.59, -1.8, -3.16, -2.84, -2.21, -1.2, -0.57, -1.24, -0.57, -0.0, 0.57, 0.65, -0.0, -0.0, 0.76, 3.2, 5.49, 6.32, 7.02, 9.66, 21.7, 21.41, 1.26, -5.81, -2.5, -1.16, -1.16, -0.0, 2.48, 5.36, 4.09, 3.74, 2.63, 0.6, 0.6, 0.6, 7.13, 7.13, 6.68, 6.61, 6.61, 6.61, 6.6, 6.61, 6.61, 6.68, 6.68, 6.68, 6.68, 6.68, 6.68, 6.68, 6.68, 6.68, 6.68, 6.68, 6.68, 6.23, 6.23, 6.26, 6.71, 7.15, 7.15, 6.71, 6.26, 6.26, 6.23, 6.23, 6.16, 6.04, 5.81, 5.6, 5.6, 5.37, 5.75, 5.75, 5.58, 5.58, 5.29, 4.94, 4.94, 4.94, 4.71, 4.71, 4.71, 4.65, 4.65, 4.07, 3.73, 3.48, 2.86, 2.23, 1.8, 1.33, 0.61, 0.61, -0.0, -0.0, -0.0, -1.16, -2.23, -2.79, -1.88, -1.2, -0.57, -0.99, -0.6, -0.6, -0.0, -0.0, -0.0, -0.0, -0.0, 1.6, 4.83, 6.24, 7.02, 9.0, 19.19, 26.03, 7.67, -5.31, -4.0, -0.7, -0.0, 0.66, 3.15, 5.38, 6.07, 5.86, 5.16, 3.13, 3.13, 3.13, 7.13, 7.13, 6.68, 6.68, 6.68, 6.68, 6.68, 6.68, 6.68, 6.68, 6.68, 6.68, 6.68, 6.68, 6.68, 6.71, 6.71, 6.68, 6.68, 6.68, 6.23, 6.23, 6.26, 6.26, 6.71, 6.71, 7.15, 6.71, 6.26, 6.26, 6.23, 6.23, 6.16, 6.04, 5.81, 5.6, 5.6, 5.6, 6.0, 5.75, 5.75, 5.58, 5.58, 5.29, 5.29, 4.94, 4.94, 4.94, 4.71, 4.71, 4.65, 4.65, 3.73, 3.78, 3.43, 2.84, 2.51, 1.84, 1.16, 0.61, -0.0, -0.0, -0.0, -0.61, -1.88, -2.21, -1.88, -1.2, -1.2, -0.8, -0.8, -0.57, -0.0, -0.0, -0.0, -0.0, -0.0, 0.76, 2.98, 5.69, 6.32, 10.9, 14.7, 24.96, 21.75, 0.89, -5.44, -1.35, 1.3, 1.8, 2.53, 4.75, 7.46, 8.4, 7.45, 5.77, 5.77, 5.77, 7.13, 7.13, 6.68, 6.68, 6.68, 6.68, 6.68, 6.68, 6.68, 6.68, 6.68, 6.71, 6.71, 6.71, 6.71, 6.71, 6.71, 6.71, 6.23, 6.23, 6.23, 6.23, 6.26, 6.26, 6.26, 6.71, 6.71, 6.71, 6.26, 6.26, 6.23, 6.16, 6.47, 6.47, 6.3, 6.0, 5.6, 5.6, 6.0, 6.0, 5.75, 5.75, 5.75, 5.29, 5.29, 5.29, 4.94, 4.94, 4.94, 4.71, 4.65, 4.65, 4.37, 4.0, 3.43, 3.16, 2.51, 1.84, 1.16, 0.61, -0.0, -0.0, -0.0, -0.0, -1.2, -1.88, -1.88, -1.61, -1.2, -0.0, -0.0, -0.0, -0.0, -0.0, -0.0, -0.0, -0.0, -0.0, 1.49, 3.79, 7.07, 9.6, 13.23, 20.01, 28.04, 16.33, -0.0, -1.16, 2.0, 4.11, 3.14, 4.66, 8.25, 10.25, 9.26, 8.01, 8.01, 8.01, 7.13, 7.13, 6.68, 6.68, 6.68, 6.68, 6.68, 6.68, 6.71, 6.71, 6.71, 6.71, 6.71, 6.71, 6.71, 6.71, 6.71, 6.71, 6.23, 6.23, 6.26, 6.26, 6.26, 6.26, 6.26, 6.71, 6.71, 6.71, 6.26, 6.26, 6.23, 6.6, 6.47, 6.47, 6.3, 6.3, 6.0, 6.0, 6.0, 6.0, 5.75, 5.75, 5.75, 5.49, 5.49, 5.29, 5.29, 4.94, 4.94, 5.21, 5.01, 4.65, 4.55, 4.0, 4.0, 3.43, 2.84, 2.23, 1.88, 1.2, 0.65, -0.0, -0.0, -0.0, -0.65, -1.2, -1.61, -1.61, -1.49, -0.6, -0.0, -0.0, -0.0, -0.0, -0.0, -0.0, 0.57, -0.0, 0.8, 3.84, 5.82, 8.82, 12.58, 17.73, 25.48, 21.8, 8.63, 1.33, 3.43, 6.08, 5.69, 5.94, 8.24, 10.49, 9.72, 8.91, 8.91, 8.91, 7.15, 7.15, 6.71, 6.71, 6.71, 6.71, 6.71, 6.71, 6.71, 6.71, 6.71, 6.71, 6.71, 6.71, 6.71, 6.71, 6.26, 6.26, 6.23, 6.23, 6.26, 6.26, 6.26, 6.26, 6.26, 6.71, 6.71, 6.71, 6.26, 6.23, 6.23, 6.61, 6.51, 6.51, 6.47, 6.3, 6.3, 6.1, 6.1, 6.1, 5.75, 5.75, 5.75, 5.75, 5.49, 5.29, 5.29, 4.94, 4.94, 5.21, 5.21, 4.65, 4.55, 4.55, 4.0, 3.72, 3.14, 2.53, 1.88, 1.2, 0.65, 0.54, -0.0, -0.0, -0.0, -0.54, -1.2, -1.9, -1.49, -1.24, -0.71, -0.0, -0.0, -0.0, -0.0, -0.0, 0.6, 0.6, -0.0, 1.58, 4.46, 7.89, 11.66, 16.96, 23.42, 21.28, 11.5, 5.72, 6.01, 8.18, 8.4, 8.06, 8.38, 9.36, 8.94, 8.49, 8.49, 8.49, 7.15, 7.15, 6.71, 6.71, 6.71, 6.71, 6.71, 6.71, 6.71, 6.71, 6.71, 6.71, 6.71, 6.71, 6.26, 6.26, 6.26, 6.26, 6.26, 6.23, 6.26, 6.26, 6.26, 6.26, 6.71, 6.71, 6.71, 6.71, 6.26, 6.23, 6.68, 6.61, 7.06, 6.94, 6.51, 6.3, 6.3, 6.3, 6.1, 6.51, 6.51, 5.89, 5.75, 5.75, 5.75, 5.49, 5.29, 5.21, 5.21, 5.21, 5.21, 5.08, 4.93, 4.55, 4.27, 3.88, 3.35, 2.79, 2.21, 1.9, 1.24, 0.71, 0.71, -0.0, -0.0, -0.71, -1.24, -1.49, -1.9, -1.24, -0.57, -0.0, -0.0, -0.0, -0.6, -0.0, -0.0, 0.6, 0.4, 1.2, 3.74, 7.71, 11.4, 16.05, 20.94, 20.58, 13.73, 8.65, 8.24, 9.82, 10.35, 9.86, 9.89, 9.74, 8.49, 7.57, 7.57, 7.57, 7.15, 7.15, 6.71, 6.71, 6.71, 6.71, 6.71, 6.71, 6.71, 6.26, 6.26, 6.26, 6.26, 6.26, 6.26, 6.26, 6.26, 6.26, 6.26, 6.26, 6.26, 6.26, 6.26, 6.26, 6.71, 6.71, 6.71, 6.71, 6.26, 6.23, 6.68, 6.61, 7.06, 7.06, 6.94, 6.94, 6.79, 6.79, 6.51, 6.51, 6.51, 6.28, 5.75, 5.75, 5.75, 5.75, 5.75, 5.58, 5.21, 5.21, 5.47, 5.08, 5.08, 4.55, 4.8, 4.27, 3.88, 3.6, 3.07, 2.15, 1.9, 1.24, 0.57, 0.57, -0.0, -0.0, -0.57, -1.24, -1.58, -1.58, -0.8, -0.0, -0.0, -0.0, -0.6, -0.6, -0.0, 0.63, 0.63, 1.2, 2.24, 7.11, 10.02, 13.96, 17.73, 19.19, 15.13, 10.86, 9.56, 10.24, 11.18, 11.5, 11.2, 11.09, 8.38, 5.31, 5.31, 5.31, 7.15, 7.15, 6.71, 6.71, 6.71, 6.71, 6.71, 6.71, 6.71, 6.26, 6.26, 6.26, 6.26, 6.26, 6.26, 6.26, 6.26, 6.26, 6.26, 6.26, 6.26, 6.26, 6.26, 6.26, 6.71, 6.71, 6.71, 6.71, 6.26, 6.23, 6.68, 6.61, 7.06, 7.06, 6.94, 6.94, 6.79, 6.79, 6.51, 6.51, 6.51, 6.28, 5.75, 5.75, 5.75, 5.75, 5.75, 5.58, 5.21, 5.21, 5.47, 5.08, 5.08, 4.55, 4.8, 4.27, 3.88, 3.6, 3.07, 2.15, 1.9, 1.24, 0.57, 0.57, -0.0, -0.0, -0.57, -1.24, -1.58, -1.58, -0.8, -0.0, -0.0, -0.0, -0.6, -0.6, -0.0, 0.63, 0.63, 1.2, 2.24, 5.77, 8.8, 11.66, 14.68, 16.24, 15.13, 12.49, 10.86, 10.86, 11.87, 12.52, 12.89, 12.79, 9.49, 3.13, 3.13, 3.13]}, {"header": {"dx": 0.06612293990616946, "dy": 0.0552356325346848, "nx": 98, "ny": 59, "la1": 35.046912555036876, "la2": 31.78801023549047, "lo1": -121.43107172385933, "lo2": -114.95102361305473, "refTime": "2026041106", "parameterCategory": 1, "parameterNumber": 3}, "data": [5.29, 5.58, 5.29, 5.75, 6.1, 6.3, 6.04, 5.57, 5.7, 5.7, 5.36, 4.47, 3.95, 3.58, 3.47, 1.7, 3.22, 3.58, 3.72, 5.2, 5.4, 3.6, 4.4, 4.46, 4.8, 5.2, 4.93, 4.66, 3.51, 2.68, 1.9, 1.4, 0.7, -0.0, -0.0, -0.71, -1.9, -3.13, -3.47, -3.2, -0.71, 1.9, 2.84, 3.48, 3.45, 3.69, 3.8, 3.8, 3.91, 4.56, 5.37, 5.37, 5.37, 5.3, 5.3, 4.56, 3.79, 3.0, 3.11, 2.47, 2.2, 2.26, 3.21, 3.16, 3.07, 3.16, 2.97, 3.15, 3.15, 3.95, 4.68, 3.95, 3.15, 1.6, 1.6, 2.31, 2.35, 0.73, -0.89, -2.53, -2.84, -3.16, -3.84, -4.24, -4.85, -4.87, -4.4, -3.84, -4.11, -4.83, -5.28, -5.41, -5.3, -5.4, -5.6, -4.48, -3.16, -0.71, 5.29, 5.29, 5.29, 5.75, 5.75, 6.0, 5.81, 5.99, 5.57, 5.7, 5.34, 5.36, 4.02, 3.58, 4.02, 4.24, 3.6, 3.72, 4.24, 4.85, 5.7, 5.81, 4.98, 5.4, 4.8, 4.4, 4.15, 3.95, 3.97, 4.02, 3.04, 1.2, -0.0, -0.0, -0.0, -0.0, -0.8, -2.24, -1.9, -0.76, 0.65, 3.16, 3.22, 2.88, 2.35, 2.18, 2.4, 3.0, 3.11, 3.72, 4.43, 4.74, 4.65, 4.22, 4.29, 3.33, 3.11, 3.11, 2.47, 2.47, 2.2, 2.4, 2.23, 2.28, 2.97, 3.78, 3.88, 2.99, 3.27, 3.88, 4.87, 5.51, 4.6, 3.32, 2.26, 2.18, 2.23, 0.73, -0.89, -2.53, -2.84, -3.16, -3.84, -4.24, -4.85, -4.87, -4.4, -3.84, -4.11, -4.83, -5.28, -5.41, -5.3, -5.4, -5.6, -4.48, -3.16, -0.71, 5.29, 5.29, 5.29, 5.49, 5.75, 6.0, 5.81, 5.81, 5.57, 5.51, 5.26, 5.36, 4.47, 4.02, 3.58, 3.47, 3.2, 3.6, 4.15, 4.77, 4.85, 5.2, 5.4, 6.79, 6.4, 4.8, 2.8, 3.13, 3.58, 5.36, 6.71, 4.85, 2.5, 0.65, 0.61, 0.85, -0.0, -0.89, -1.26, 0.0, 1.16, 2.07, 2.29, 2.35, 1.45, 1.45, 1.6, 1.49, 1.4, 2.15, 2.79, 3.22, 3.11, 3.11, 2.66, 2.4, 2.4, 2.29, 2.2, 2.2, 1.63, 1.63, 2.26, 3.09, 3.91, 5.28, 6.2, 5.52, 4.83, 3.7, 3.95, 4.68, 3.85, 3.21, 2.26, 0.79, 1.44, 0.61, -1.58, -2.79, -2.51, -2.84, -4.09, -4.8, -4.73, -5.36, -5.44, -4.8, -5.46, -6.24, -7.08, -6.71, -6.97, -6.87, -5.41, -2.31, 0.0, 1.52, 5.29, 5.29, 5.29, 5.49, 5.75, 5.75, 5.6, 5.81, 5.51, 5.51, 5.24, 5.36, 4.47, 4.02, 3.58, 2.24, 3.47, 3.9, 3.95, 4.15, 4.38, 3.39, 3.82, 4.57, 5.82, 4.65, 2.8, 2.68, 3.58, 5.16, 6.98, 8.8, 8.82, 8.05, 6.26, 4.02, 2.68, 1.26, 0.0, 0.0, 0.65, 0.61, 1.55, 1.41, 1.52, 1.6, 0.79, 0.71, 0.57, 1.49, 1.6, 1.55, 1.55, 1.7, 1.66, 2.2, 2.4, 2.29, 2.2, 2.35, 1.52, 1.47, 2.98, 3.79, 5.69, 7.9, 9.48, 9.08, 7.67, 5.09, 3.88, 3.06, 2.35, 2.12, 0.69, 0.0, -0.71, 0.0, -1.86, -2.98, -2.79, -2.84, -3.45, -4.46, -4.8, -4.02, -4.41, -5.75, -6.7, -7.97, -7.52, -6.79, -6.79, -4.71, 0.0, 1.41, 2.2, 2.26, 5.29, 5.29, 5.29, 5.49, 5.75, 5.75, 6.0, 5.6, 5.31, 5.51, 5.09, 4.89, 4.02, 3.58, 3.58, 2.24, 3.47, 3.47, 3.95, 4.41, 5.2, 4.77, 4.24, 4.24, 4.22, 5.01, 5.2, 5.81, 4.47, 4.66, 4.84, 5.46, 6.94, 6.98, 7.15, 6.36, 5.75, 3.91, 0.79, 0.0, 0.65, 1.4, 2.2, 2.29, 2.29, 2.2, 1.33, 1.49, 1.24, 1.4, 1.2, 1.49, 1.49, 1.66, 2.2, 2.88, 2.47, 2.47, 2.35, 2.35, 1.47, 2.15, 3.22, 5.05, 8.05, 10.28, 10.86, 11.06, 10.89, 9.49, 6.33, 3.88, 3.33, 3.09, 1.55, 0.0, -2.11, -1.4, -1.2, -2.73, -2.73, -3.14, -3.45, -4.46, -5.05, -4.87, -5.75, -6.94, -8.3, -8.3, -6.95, -6.32, -3.64, 0.0, 2.84, 3.9, 2.31, 1.58, 4.71, 5.29, 5.29, 5.29, 5.49, 5.75, 5.75, 5.6, 5.4, 5.31, 5.09, 4.8, 4.02, 3.13, 2.68, 3.13, 3.47, 3.9, 3.95, 4.02, 4.38, 5.31, 6.14, 6.58, 6.14, 6.14, 6.14, 6.71, 7.6, 5.81, 4.22, 3.07, 2.41, 2.21, 4.02, 4.4, 4.11, 3.2, 2.35, 0.71, 1.26, 2.98, 4.74, 4.56, 4.56, 3.9, 4.01, 3.35, 3.07, 2.79, 2.3, 2.07, 2.41, 2.3, 3.22, 3.2, 3.2, 2.35, 2.51, 2.35, 2.07, 2.6, 4.66, 7.71, 9.33, 10.48, 10.9, 11.47, 11.92, 11.73, 10.05, 7.54, 6.97, 6.87, 6.21, 4.58, 0.0, -2.68, -2.23, -2.07, -3.48, -3.72, -4.0, -4.46, -5.6, -6.66, -7.45, -8.24, -8.3, -7.44, -5.09, -2.15, 0.0, 3.07, 3.79, 3.2, 2.23, 1.44, 4.71, 4.71, 4.94, 5.29, 5.29, 5.75, 5.75, 5.6, 5.6, 5.31, 5.31, 5.09, 3.95, 2.68, 2.68, 2.24, 2.54, 2.97, 3.47, 3.04, 2.24, 3.13, 4.47, 5.81, 7.06, 6.58, 6.71, 7.6, 7.06, 5.51, 4.47, 4.15, 2.23, 1.86, 3.95, 3.2, 3.48, 3.22, 3.2, 1.49, 1.2, 2.12, 2.84, 4.19, 4.22, 4.65, 4.56, 3.9, 3.35, 4.19, 4.47, 3.35, 3.35, 2.98, 2.29, 2.2, 2.2, 1.6, 0.72, 0.76, 1.49, 4.38, 6.07, 8.36, 9.33, 9.65, 10.28, 10.18, 10.65, 11.25, 10.6, 8.61, 7.02, 6.21, 6.2, 6.07, 3.91, -0.6, -2.21, -2.53, -3.84, -5.05, -5.6, -6.0, -6.79, -7.6, -8.36, -7.6, -6.07, -3.83, -2.15, 0.0, 2.91, 4.24, 3.79, 2.26, 1.47, 0.73, 4.71, 4.71, 4.71, 4.94, 4.94, 5.21, 5.75, 5.37, 5.47, 5.31, 5.31, 5.09, 4.82, 3.9, 3.58, 2.24, 2.24, 2.54, 2.97, 2.54, 0.63, 0.0, 0.6, 1.2, 3.95, 4.77, 5.36, 5.36, 5.4, 5.2, 5.36, 5.7, 5.7, 4.92, 3.13, 1.0, 0.0, 0.73, 2.12, 0.96, 0.8, 0.89, 0.63, 0.99, 2.4, 3.45, 4.03, 3.11, 3.07, 3.76, 2.41, 2.53, 3.22, 2.29, 2.29, 1.6, 0.76, 0.0, 0.0, 0.0, 2.6, 5.31, 7.11, 8.36, 8.4, 8.24, 8.27, 7.73, 7.01, 7.93, 7.8, 7.2, 4.65, 2.31, 1.52, 1.41, 3.17, 1.45, -1.79, -2.21, -1.88, -4.09, -4.52, -4.52, -5.2, -5.81, -5.64, -4.4, -2.5, -1.9, 0.0, 2.4, 4.02, 4.24, 3.72, 2.31, 0.74, 0.76, 4.43, 4.71, 4.71, 4.71, 4.94, 4.94, 5.21, 5.21, 5.47, 5.08, 4.9, 4.6, 5.2, 4.85, 4.38, 3.47, 2.97, 2.97, 2.97, 2.97, 2.8, 0.89, 1.34, 0.89, 2.68, 3.58, 3.13, 1.34, 4.24, 4.77, 4.47, 3.72, 4.24, 3.58, 1.9, 0.0, -1.58, -1.49, 0.0, 0.0, 0.0, 0.89, 0.0, 0.0, 0.0, 1.55, 2.49, 3.68, 3.9, 4.01, 3.22, 1.49, 0.73, 0.76, 0.76, 0.76, 0.76, 0.0, 0.0, 0.95, 3.95, 7.11, 7.56, 7.42, 6.4, 6.08, 5.64, 5.51, 4.65, 4.76, 4.62, 5.09, 3.07, 0.68, 0.0, -0.78, -0.75, 0.0, -0.7, -2.17, -1.2, -1.88, -1.9, -2.4, -2.17, -2.68, -2.4, -1.9, -1.2, 0.0, 1.24, 3.13, 3.58, 3.07, 2.88, 1.54, 0.78, 0.71, 4.12, 4.71, 4.71, 4.71, 4.71, 4.94, 5.21, 5.21, 5.21, 4.93, 4.8, 4.27, 3.87, 3.98, 3.9, 3.47, 2.97, 2.97, 3.2, 3.2, 3.39, 3.2, 3.2, 2.8, 1.79, 2.8, 2.68, 2.4, 3.58, 4.02, 1.58, -0.0, -0.0, 0.0, 0.0, 0.0, -1.13, -1.88, -0.76, 0.0, 0.54, 0.63, 0.0, 0.0, 0.0, 0.88, 1.6, 2.47, 4.16, 4.16, 3.33, 1.41, 0.0, 0.0, -0.73, -0.73, -0.73, -0.73, 0.0, 2.68, 6.71, 8.01, 8.67, 6.28, 4.84, 2.3, 1.55, 2.02, 2.1, 1.57, 2.3, 2.84, 2.06, 0.7, 0.0, -2.06, -3.21, -3.06, -2.12, -1.8, -0.57, 1.24, 0.0, -0.0, -0.89, -1.2, -0.99, -1.0, -0.65, 0.0, 1.26, 2.24, 2.24, 1.58, 1.41, 1.54, 0.75, 1.49, 4.12, 4.12, 4.71, 4.71, 4.71, 4.71, 5.21, 5.21, 5.21, 4.65, 4.55, 4.0, 3.72, 3.39, 3.39, 2.97, 2.6, 1.9, 1.9, 1.61, 1.74, 1.98, 1.98, 1.13, 1.6, 1.9, 2.68, 2.24, 1.79, 1.79, 0.0, -0.0, -0.6, -1.2, -0.45, 0.0, 0.0, 0.0, 0.0, 0.0, 0.71, 0.95, 1.0, 0.0, 0.0, 0.0, 0.0, 1.83, 2.4, 3.11, 4.95, 4.95, 4.01, 3.07, 0.71, -0.8, -2.23, -1.2, 0.89, 5.81, 7.6, 7.42, 6.28, 5.82, 4.74, 1.6, 0.0, -1.52, -1.56, -1.54, -1.51, -0.7, 0.0, 0.0, -1.39, -2.02, -2.75, -2.98, -2.15, -0.99, 0.4, 2.15, 2.84, 1.24, 0.57, 0.0, -0.57, -1.9, -1.24, -0.6, 0.0, 0.63, 0.63, 0.57, 0.0, 0.0, 0.78, 1.45, 4.12, 4.12, 4.11, 4.71, 4.71, 4.71, 4.71, 5.01, 5.01, 4.65, 4.29, 3.73, 3.43, 3.35, 2.68, 2.4, 1.9, 1.61, 1.4, 0.61, 0.59, 0.57, 0.0, 0.0, 0.0, 0.0, 1.6, 1.26, 0.45, 0.0, 1.34, 1.34, 0.0, 0.0, -0.45, 0.0, 0.0, 0.99, 0.95, 1.26, 1.58, 2.53, 1.74, 1.4, 0.0, 0.87, 2.48, 3.48, 3.79, 4.65, 7.42, 9.6, 11.87, 11.95, 9.83, 7.21, 2.97, -1.2, 0.87, 5.59, 8.01, 7.21, 6.16, 5.82, 6.39, 5.49, 4.6, 1.55, -0.78, -0.8, 0.73, 0.0, -2.76, -2.97, -2.35, -0.78, -0.57, -1.7, -1.6, -0.0, 1.34, 2.6, 2.86, 3.79, 4.07, 3.64, 1.23, 0.0, 0.0, 0.0, 0.0, 0.0, 0.0, 0.0, 0.0, 0.0, 0.0, 0.7, 4.12, 4.12, 3.83, 4.11, 4.71, 4.71, 4.71, 4.71, 4.71, 4.37, 4.41, 4.07, 3.48, 3.43, 3.14, 2.21, 2.21, 1.88, 1.16, 0.59, 0.59, 0.57, 0.0, 0.0, 0.0, 0.0, 0.0, 0.57, 1.2, 1.7, 2.24, 2.24, 2.12, 2.0, 0.8, 1.26, 2.12, 3.13, 2.68, 2.4, 2.21, 2.21, 2.21, 1.9, 1.9, 4.24, 5.7, 5.81, 5.81, 6.79, 7.76, 9.15, 11.08, 12.43, 13.44, 13.57, 11.12, 7.07, 3.13, 4.4, 8.94, 8.82, 7.03, 6.4, 8.55, 10.28, 12.33, 12.39, 9.2, 9.84, 12.49, 11.82, 0.65, -2.6, -1.24, 0.0, -0.0, -0.0, 0.6, 1.79, 1.79, 2.8, 2.84, 2.15, 5.43, 6.24, 5.52, 4.14, 4.14, 4.2, 3.61, 1.45, 0.0, 0.0, 0.0, 0.0, 0.0, 0.59, 4.12, 4.12, 4.12, 3.83, 4.11, 4.71, 4.71, 4.71, 4.71, 4.37, 4.11, 3.79, 3.49, 3.48, 2.86, 2.84, 2.23, 2.23, 1.6, 1.27, 1.11, 0.63, 0.61, 0.59, 0.0, 0.0, 0.0, 0.0, 1.08, 2.21, 2.24, 2.24, 2.68, 1.58, 1.9, 2.4, 2.54, 2.54, 2.0, 1.26, 1.26, 1.26, 1.58, 3.2, 4.24, 5.81, 4.92, 5.2, 5.7, 6.61, 7.06, 7.15, 7.15, 6.71, 7.5, 7.89, 9.1, 12.11, 10.04, 6.71, 9.39, 10.04, 9.97, 9.54, 10.45, 11.66, 13.4, 15.66, 16.64, 14.83, 17.66, 19.7, 12.13, -0.0, -1.4, -0.0, -0.0, 1.24, 2.24, 3.32, 3.83, 3.79, 3.38, 3.43, 4.09, 5.59, 6.2, 6.97, 7.15, 7.19, 6.48, 4.15, 2.12, 0.78, 0.0, 0.0, 0.0, 0.0, 4.12, 4.12, 4.12, 3.83, 4.11, 4.71, 4.71, 4.71, 4.71, 4.37, 4.11, 4.11, 3.79, 3.49, 3.2, 2.86, 3.16, 2.51, 2.23, 1.76, 1.76, 1.19, 1.07, 0.53, 0.0, 0.0, 0.0, 0.0, 0.53, 1.8, 2.4, 1.79, 1.58, 1.2, 1.4, 1.9, 1.9, 1.26, 1.58, 1.26, 1.26, 1.9, 1.9, 3.2, 4.77, 4.92, 4.92, 4.92, 5.36, 5.36, 5.81, 5.81, 4.47, 3.58, 3.82, 4.09, 5.01, 7.27, 10.18, 9.63, 8.94, 8.87, 9.6, 10.04, 10.47, 11.57, 12.47, 12.31, 11.62, 10.4, 10.8, 13.46, 15.3, 6.14, -1.9, -2.53, 0.71, 2.12, 3.04, 4.46, 4.74, 4.56, 4.14, 3.55, 1.9, 3.07, 5.49, 6.79, 7.09, 6.43, 6.09, 4.1, 2.82, 2.12, 1.49, 0.0, 0.0, 0.0, 4.12, 4.12, 4.12, 4.12, 3.83, 4.43, 4.71, 4.71, 4.71, 4.43, 4.11, 4.11, 4.11, 3.78, 3.49, 3.2, 2.86, 2.86, 2.86, 2.44, 2.2, 2.18, 1.7, 1.14, 0.58, 0.0, 0.0, 0.0, 0.0, 1.11, 2.21, 1.86, 1.26, 0.0, 1.4, 2.0, 0.63, 0.95, 2.24, 2.24, 1.6, 2.0, 2.8, 3.2, 4.24, 4.47, 4.92, 4.92, 4.47, 4.47, 4.47, 4.02, 3.82, 2.8, 2.8, 2.53, 4.09, 4.74, 6.87, 7.37, 6.98, 7.5, 7.5, 7.5, 7.5, 8.49, 8.49, 9.11, 10.21, 9.1, 7.44, 7.22, 8.74, 9.51, 1.56, 0.0, 1.26, 1.9, 2.41, 2.73, 3.69, 3.06, 2.35, 1.52, 0.95, 0.6, 2.5, 3.9, 4.5, 4.5, 4.0, 2.19, 2.23, 2.23, 1.43, 0.67, 0.0, 0.0, 3.84, 4.12, 4.12, 4.12, 4.12, 4.12, 4.12, 4.43, 4.12, 4.12, 3.83, 3.83, 3.83, 3.49, 3.49, 3.49, 3.48, 2.86, 3.15, 2.86, 2.84, 2.18, 2.36, 1.84, 1.16, 0.59, 0.0, 0.0, 0.0, 0.57, 1.8, 1.16, 0.54, 0.0, 1.49, 2.23, 2.54, 2.24, 2.24, 2.68, 2.68, 2.24, 3.2, 2.54, 4.02, 4.02, 4.47, 4.47, 4.02, 3.13, 3.13, 3.13, 3.2, 2.53, 2.53, 2.84, 2.73, 2.4, 2.8, 5.06, 6.13, 5.81, 5.2, 4.4, 5.81, 6.02, 6.61, 7.15, 9.21, 9.42, 6.71, 2.11, 2.35, 5.47, 6.94, 6.9, 7.79, 6.9, 4.58, 3.06, 2.31, 1.52, 0.0, 0.0, 0.0, -0.0, 0.89, 1.49, 1.58, 1.54, 2.06, 2.14, 1.4, 0.71, 0.77, 0.71, 0.66, 0.66, 3.84, 3.84, 4.12, 4.12, 4.12, 4.12, 4.12, 4.12, 4.12, 4.12, 4.12, 3.83, 3.83, 3.49, 3.49, 3.49, 3.48, 3.48, 3.49, 3.49, 2.2, 1.73, 2.2, 2.84, 2.82, 1.08, 0.0, 0.0, 0.0, 0.57, 1.08, 1.23, 1.11, 0.59, 1.16, 2.21, 3.04, 3.58, 3.13, 3.13, 3.13, 2.68, 2.68, 3.13, 4.02, 4.02, 4.02, 4.02, 4.02, 3.58, 3.13, 2.8, 2.8, 2.53, 2.53, 2.23, 1.41, 2.4, 2.6, 3.76, 5.01, 5.01, 3.79, 4.77, 6.14, 5.75, 5.2, 4.09, 3.2, 2.46, 2.16, 0.77, 0.77, 3.09, 5.32, 8.61, 10.32, 12.07, 10.59, 8.03, 5.48, 3.07, 0.77, -0.0, -0.65, -1.24, -1.34, 0.0, 0.0, 0.0, 1.5, 2.28, 0.69, 0.0, 0.0, 0.7, 1.35, 1.35, 3.84, 3.84, 4.12, 4.12, 4.12, 4.12, 4.12, 4.12, 4.12, 4.12, 4.12, 4.12, 3.49, 3.49, 3.49, 3.22, 3.2, 3.79, 3.79, 3.22, 2.44, 1.8, 2.23, 3.35, 3.22, 2.6, 1.8, 0.88, 0.81, 1.19, 1.16, 1.16, 1.07, 1.08, 1.11, 2.21, 3.13, 3.09, 3.58, 3.58, 3.13, 2.68, 2.68, 3.58, 4.02, 3.58, 3.58, 3.58, 3.58, 3.58, 3.58, 3.2, 3.2, 2.53, 3.72, 3.48, 2.73, 2.4, 3.49, 3.49, 3.49, 2.98, 3.16, 4.02, 6.02, 6.28, 5.2, 2.6, 0.0, -1.23, 0.0, 0.77, 2.25, 3.2, 3.79, 3.91, 4.68, 6.28, 8.71, 9.51, 6.31, 3.87, 0.0, 0.0, -0.6, -1.49, -2.24, -1.9, -0.74, 0.0, 0.75, 1.5, 0.79, 0.0, 0.61, 1.49, 1.49, 1.49, 4.12, 3.84, 3.84, 4.12, 4.12, 4.12, 4.12, 4.12, 4.12, 4.12, 4.12, 4.12, 3.49, 3.49, 3.49, 2.84, 3.49, 3.48, 3.79, 3.72, 2.6, 1.8, 1.84, 2.53, 2.6, 2.64, 2.35, 1.8, 1.65, 1.65, 1.65, 1.12, 1.14, 1.16, 1.19, 2.58, 3.87, 3.58, 3.09, 2.68, 2.68, 2.6, 2.6, 2.6, 2.68, 3.13, 3.13, 3.58, 3.58, 3.58, 3.2, 3.82, 4.24, 4.24, 1.86, 1.9, 3.49, 1.4, 1.4, 1.19, 1.41, 2.53, 4.02, 5.2, 5.59, 5.34, 4.57, 3.58, 1.98, 0.0, 0.0, 0.0, 0.0, 1.56, 1.59, 0.0, -0.75, -0.75, 3.16, 5.6, 6.22, 5.51, 1.58, -0.89, -0.99, -1.2, -1.34, -1.86, -1.23, -1.36, -0.76, 0.0, 0.0, 0.0, 1.2, 1.41, 1.41, 1.41, 4.12, 3.84, 3.84, 3.84, 4.12, 4.12, 4.12, 4.12, 4.12, 4.12, 4.12, 4.12, 3.47, 3.47, 3.22, 3.08, 3.12, 3.15, 2.86, 2.4, 2.47, 2.4, 2.2, 1.73, 1.14, 1.2, 1.73, 1.71, 1.71, 1.73, 1.63, 1.12, 1.14, 1.05, 1.55, 3.15, 4.19, 4.47, 3.58, 3.58, 3.13, 3.58, 3.53, 3.09, 2.68, 3.58, 3.13, 3.13, 3.13, 3.58, 4.02, 4.47, 4.77, 4.77, 4.09, 1.9, 2.41, 2.07, 2.2, 1.4, 2.24, 3.13, 4.77, 5.64, 4.66, 4.15, 4.15, 4.47, 4.8, 4.16, 3.06, 1.58, -0.77, -3.18, -3.2, -2.32, -5.68, -5.4, -3.96, 0.0, 2.36, 4.74, 4.52, 0.65, -1.26, -0.6, -0.89, -1.2, -0.61, -2.04, -2.35, -1.52, 0.0, 0.7, 0.65, 0.66, 1.36, 1.36, 4.12, 4.12, 3.84, 3.84, 3.84, 3.84, 3.84, 3.84, 3.84, 4.12, 4.12, 3.84, 3.47, 3.47, 3.47, 2.82, 2.84, 2.86, 2.22, 1.76, 2.18, 2.36, 2.36, 1.67, 1.8, 1.2, 1.18, 1.61, 1.61, 1.73, 1.73, 1.76, 1.12, 1.14, 1.7, 3.49, 4.8, 4.88, 4.47, 4.02, 4.47, 4.47, 4.47, 4.02, 3.58, 3.13, 2.68, 2.68, 3.13, 3.58, 4.02, 4.47, 4.24, 4.24, 4.09, 3.48, 2.53, 3.16, 3.79, 1.79, 0.6, 2.21, 3.6, 3.95, 3.95, 3.47, 3.47, 2.6, 5.36, 7.21, 8.0, 8.94, 5.67, -1.48, -3.91, -4.37, -5.59, -7.61, -7.85, -6.29, -1.57, 2.21, 5.61, 4.55, 0.79, 0.0, 0.0, 0.0, 0.65, -0.67, 0.0, 0.0, 0.69, 0.63, 0.0, 0.0, 0.0, 0.0, 3.85, 3.85, 4.12, 3.84, 3.84, 3.84, 3.84, 3.84, 3.84, 3.84, 3.84, 3.84, 3.47, 3.47, 3.47, 3.04, 2.82, 2.84, 2.44, 2.44, 2.2, 2.18, 2.36, 1.67, 1.8, 1.76, 1.73, 1.73, 1.73, 1.73, 1.73, 1.73, 1.2, 1.12, 1.67, 3.83, 5.6, 5.7, 4.89, 4.92, 4.92, 4.92, 4.92, 4.92, 4.88, 4.43, 3.39, 3.13, 3.58, 3.58, 4.02, 4.02, 3.82, 3.35, 3.72, 4.09, 4.22, 4.84, 2.98, 1.34, 0.8, 2.86, 3.2, 3.51, 3.95, 4.02, 3.13, 2.12, 2.8, 6.07, 8.05, 10.23, 4.61, -2.68, -3.82, -2.21, -2.79, -5.36, -7.92, -9.19, -6.44, -2.28, 1.57, 3.1, 3.87, 1.49, 0.54, 1.86, 2.84, 5.37, 2.9, 2.82, 2.66, 1.3, 0.0, 0.0, 0.0, 0.0, 3.45, 3.45, 3.45, 3.72, 3.84, 3.84, 3.84, 4.12, 4.12, 4.12, 3.84, 3.84, 3.47, 3.47, 3.22, 2.8, 2.82, 2.82, 2.4, 2.2, 2.4, 2.18, 2.36, 2.32, 2.32, 2.29, 1.73, 1.73, 1.73, 1.73, 1.73, 2.26, 1.63, 1.12, 1.67, 4.12, 6.28, 6.3, 6.16, 5.78, 5.36, 5.36, 4.92, 4.92, 4.89, 4.8, 5.2, 4.92, 4.47, 4.02, 4.02, 3.39, 3.6, 2.53, 2.84, 3.72, 4.15, 5.09, 5.81, 2.6, 1.79, 1.86, 3.04, 3.58, 3.51, 4.02, 3.58, 4.92, 2.8, 2.84, 3.6, 4.38, 8.07, 4.81, 1.19, -1.3, -2.12, -4.47, -7.76, -9.45, -9.6, -6.51, -3.39, -1.41, 0.0, 0.0, 1.33, 3.07, 4.46, 6.64, 5.94, 5.86, 4.73, 2.99, 1.35, 0.7, 0.67, 0.67, 3.45, 3.45, 3.45, 3.72, 3.47, 3.47, 3.84, 4.12, 4.12, 4.12, 4.12, 3.84, 3.47, 3.47, 2.8, 2.8, 2.8, 2.82, 2.84, 2.84, 2.4, 2.18, 2.36, 2.32, 2.32, 2.29, 2.26, 1.73, 1.73, 1.73, 1.73, 2.26, 1.73, 1.65, 2.32, 4.74, 6.56, 7.09, 6.94, 6.61, 6.23, 6.23, 5.81, 5.36, 4.89, 4.77, 4.6, 4.11, 3.39, 2.63, 2.6, 3.2, 1.6, 1.6, 1.6, 2.53, 4.24, 4.47, 4.77, 5.75, 3.72, 2.24, 2.24, 3.13, 4.02, 4.47, 3.58, 4.02, 3.51, 1.2, 0.0, 1.58, 7.66, 11.39, 8.62, 2.21, -2.88, -5.77, -7.28, -8.82, -10.37, -10.0, -7.55, -5.47, -4.01, 0.0, 2.5, 4.24, 5.16, 7.33, 9.08, 7.59, 6.36, 4.6, 3.6, 1.98, 1.41, 1.41, 3.45, 3.45, 3.45, 3.45, 3.47, 3.47, 3.47, 4.12, 4.12, 4.12, 4.12, 3.84, 3.47, 3.22, 3.0, 3.0, 2.8, 2.8, 2.82, 2.84, 2.84, 2.18, 2.36, 2.32, 2.32, 2.29, 2.29, 2.26, 1.73, 1.73, 1.73, 2.26, 2.26, 1.76, 2.8, 5.06, 6.95, 7.31, 7.69, 7.4, 7.06, 7.06, 6.61, 6.16, 5.33, 4.34, 4.11, 3.6, 3.2, 2.4, 1.86, 1.24, 1.6, 1.6, 1.6, 2.84, 4.47, 4.47, 4.47, 4.34, 4.65, 4.4, 2.68, 4.92, 4.47, 3.58, 4.47, 3.58, 3.58, 2.97, 0.98, 2.46, 5.67, 11.28, 14.6, 13.15, 3.53, -6.25, -6.28, -6.98, -10.16, -10.6, -9.46, -6.92, -1.35, 2.5, 4.66, 4.73, 5.16, 6.58, 7.47, 8.57, 7.73, 6.21, 5.09, 3.88, 3.44, 3.44, 3.45, 3.45, 3.45, 3.45, 3.72, 3.47, 3.47, 3.47, 4.12, 4.12, 4.12, 3.72, 3.45, 3.45, 3.0, 3.0, 3.0, 2.8, 2.82, 2.82, 2.84, 2.36, 2.36, 2.32, 2.32, 2.29, 2.29, 2.26, 2.26, 1.73, 1.73, 1.73, 1.63, 2.29, 3.85, 5.93, 6.7, 7.48, 7.08, 6.6, 6.04, 6.16, 5.99, 6.04, 5.09, 4.3, 3.2, 3.07, 2.68, 2.4, 1.26, 1.24, 1.2, 1.16, 2.68, 4.15, 4.47, 4.47, 3.47, 3.13, 4.24, 4.8, 5.2, 4.47, 4.92, 2.68, 3.13, 2.24, 2.24, 2.84, 0.88, 0.78, 3.15, 7.12, 12.13, 15.82, 13.67, -0.61, -5.16, -3.07, -2.68, -3.51, -3.07, -0.99, 1.86, 3.74, 4.0, 4.93, 5.34, 5.16, 5.44, 6.35, 7.54, 7.13, 7.11, 6.36, 5.52, 5.52, 3.45, 3.45, 3.45, 3.45, 3.45, 3.47, 3.47, 3.72, 3.85, 3.85, 4.12, 3.45, 3.45, 3.45, 3.0, 3.0, 3.0, 2.8, 2.8, 2.82, 2.82, 2.36, 2.36, 2.32, 2.32, 2.29, 2.29, 2.44, 2.26, 2.26, 2.26, 1.73, 1.63, 2.29, 4.12, 5.93, 6.7, 6.7, 6.7, 6.28, 5.57, 5.24, 5.02, 4.17, 4.0, 3.14, 2.15, 2.5, 2.4, 2.0, 2.12, 2.23, 2.5, 2.79, 3.72, 4.66, 4.34, 4.02, 3.13, 3.13, 3.47, 4.15, 4.38, 4.02, 3.58, 4.02, 1.79, 0.89, 0.0, 0.71, 0.81, 0.0, -0.88, 0.0, 3.7, 6.14, 9.99, 6.4, -1.6, -0.65, 1.9, 2.17, 1.79, 2.6, 4.0, 4.09, 4.93, 5.34, 5.69, 5.05, 3.83, 4.74, 7.12, 7.77, 7.69, 6.87, 6.32, 6.32, 3.45, 3.45, 3.45, 3.45, 3.45, 3.45, 3.72, 3.45, 3.45, 3.85, 3.45, 3.45, 3.45, 3.45, 3.0, 3.0, 2.77, 3.0, 2.8, 2.82, 2.82, 2.82, 2.36, 2.32, 2.14, 2.29, 2.29, 2.26, 2.26, 2.26, 1.73, 1.73, 1.63, 2.29, 4.12, 5.93, 6.15, 6.15, 6.15, 5.86, 5.31, 4.34, 3.7, 4.22, 4.46, 3.43, 2.15, 2.17, 3.07, 2.6, 3.07, 2.91, 3.07, 3.6, 3.6, 3.6, 3.82, 3.58, 3.13, 3.13, 3.04, 3.95, 4.02, 3.58, 3.13, 3.58, 2.68, 0.45, -1.34, -0.63, 0.0, 0.0, -2.4, -5.16, -5.37, -3.14, 0.0, 5.58, 3.07, 0.0, 1.24, 3.09, 3.09, 4.9, 5.95, 6.08, 5.69, 5.09, 5.09, 4.74, 4.12, 4.74, 4.73, 6.27, 6.87, 6.24, 6.24, 6.24, 3.42, 3.42, 3.45, 3.45, 3.45, 3.45, 3.45, 3.45, 3.45, 3.45, 3.45, 3.45, 3.45, 3.45, 3.0, 2.77, 2.77, 2.77, 2.8, 2.8, 2.82, 2.82, 2.36, 2.16, 2.32, 2.29, 2.29, 2.26, 2.26, 2.26, 1.73, 1.73, 1.63, 2.29, 3.85, 5.06, 5.93, 5.93, 5.65, 5.59, 5.08, 4.6, 3.87, 3.7, 4.4, 4.84, 4.22, 3.39, 3.87, 3.7, 3.6, 2.79, 3.07, 2.5, 2.5, 1.9, 1.86, 2.12, 3.13, 3.13, 3.04, 3.95, 4.02, 3.13, 2.68, 3.58, 4.41, 2.54, 0.0, -1.79, -1.26, 0.0, 0.0, -5.43, -9.84, -8.09, -4.61, 0.0, 3.95, 1.54, -1.24, -0.0, 2.63, 5.89, 7.35, 6.98, 6.32, 5.35, 4.67, 5.0, 4.71, 4.83, 4.87, 5.29, 5.63, 5.64, 4.95, 4.95, 3.42, 3.42, 3.21, 3.45, 3.45, 3.45, 3.45, 3.45, 3.45, 3.45, 3.45, 3.45, 3.45, 3.45, 3.0, 2.77, 2.77, 2.29, 3.0, 2.8, 2.82, 2.82, 2.36, 2.36, 2.32, 2.29, 2.12, 2.26, 2.29, 1.76, 1.76, 1.63, 1.63, 2.77, 4.1, 5.06, 5.06, 5.06, 5.06, 5.35, 5.21, 4.9, 4.6, 4.34, 4.6, 5.2, 4.84, 4.0, 3.88, 3.72, 3.14, 2.23, 1.4, 1.49, 0.71, 0.57, 0.8, 2.12, 3.13, 3.58, 3.47, 3.47, 3.47, 2.0, 1.79, 1.9, 2.54, 4.8, 3.79, 0.0, -2.68, 0.0, 1.54, 0.0, -6.95, -8.93, -6.09, -3.19, -0.79, 1.6, -0.68, -1.16, 1.86, 5.21, 6.32, 5.72, 5.46, 4.8, 4.46, 4.22, 4.22, 3.6, 3.37, 3.47, 4.17, 4.24, 4.18, 4.18, 3.42, 3.42, 3.42, 3.45, 3.45, 3.45, 3.45, 3.45, 3.45, 3.45, 3.45, 3.45, 3.45, 3.0, 2.77, 2.77, 2.29, 2.29, 2.29, 2.32, 2.8, 2.82, 2.36, 2.36, 1.8, 1.76, 1.76, 2.29, 2.26, 1.8, 1.65, 1.65, 1.76, 2.96, 3.84, 4.47, 5.06, 5.06, 5.06, 5.01, 5.21, 5.4, 5.09, 5.09, 4.6, 4.27, 4.0, 4.37, 3.43, 3.14, 2.79, 2.23, 1.84, 0.54, 0.0, 0.0, 1.26, 3.07, 3.98, 3.98, 4.38, 3.47, 2.97, 1.2, 0.89, 0.95, 0.85, 0.45, 2.4, 1.41, 0.0, -1.0, 0.0, 2.24, -1.52, -6.24, -5.3, -2.18, -2.34, -0.72, 0.0, 0.0, 0.7, 2.22, 3.42, 3.97, 3.94, 3.78, 3.2, 3.55, 2.72, 2.18, 1.36, 2.06, 2.91, 2.81, 2.76, 2.76, 3.42, 3.42, 3.42, 3.21, 3.45, 3.45, 3.45, 3.45, 3.45, 3.45, 3.45, 3.45, 3.45, 3.45, 2.77, 2.77, 2.29, 2.29, 2.29, 2.32, 2.8, 2.82, 2.36, 2.36, 1.8, 1.76, 1.76, 1.63, 1.76, 1.73, 1.8, 1.65, 1.76, 2.96, 3.84, 4.47, 4.47, 4.75, 4.45, 5.29, 5.75, 5.6, 5.4, 5.31, 4.8, 4.27, 3.43, 3.43, 3.43, 3.14, 2.79, 2.79, 2.84, 2.53, 2.5, 3.07, 4.3, 4.3, 4.34, 4.34, 4.3, 3.47, 3.39, 1.7, 1.79, 1.34, 1.6, -0.0, 0.0, 1.3, 0.88, 0.0, -2.4, -0.74, 0.0, -1.5, -1.88, -0.79, -0.67, -0.71, 0.7, 1.4, 0.71, 0.67, 1.1, 1.69, 1.65, 2.19, 1.52, 1.33, 0.76, 0.0, 0.0, 0.0, 0.0, 1.58, 1.42, 1.42, 2.96, 2.96, 2.96, 3.21, 3.21, 3.45, 3.45, 3.45, 3.45, 3.45, 3.45, 3.45, 3.45, 3.45, 2.77, 2.77, 2.29, 2.29, 2.29, 2.29, 2.32, 2.36, 2.36, 2.36, 1.8, 1.76, 1.76, 1.63, 1.63, 1.1, 1.1, 1.2, 1.76, 2.77, 3.42, 4.1, 4.47, 4.75, 4.74, 4.94, 5.37, 5.6, 5.6, 5.08, 4.4, 3.72, 3.43, 3.16, 2.84, 3.14, 2.79, 3.14, 3.35, 3.72, 3.88, 4.27, 4.6, 4.11, 4.34, 4.3, 4.77, 4.47, 4.02, 3.58, 1.79, 1.79, 1.34, 1.34, 0.0, 1.41, 2.6, 0.0, -1.32, -3.25, 0.0, 0.76, 0.0, 0.0, 0.0, 0.0, 0.0, 0.72, 0.71, 0.0, 0.0, 0.0, 0.57, 0.55, 0.0, 0.0, 0.0, -1.63, -1.36, -2.06, -2.18, 0.0, 0.0, 0.0, 2.96, 2.96, 2.96, 2.96, 2.77, 3.0, 3.45, 3.45, 3.45, 3.21, 3.21, 3.21, 3.45, 3.0, 2.77, 2.29, 2.29, 2.29, 2.29, 2.29, 2.32, 2.36, 2.36, 1.67, 1.8, 1.65, 1.76, 1.63, 1.1, 1.1, 1.1, 1.2, 1.65, 2.77, 3.45, 3.85, 4.1, 4.45, 4.74, 5.21, 5.47, 5.21, 5.21, 4.93, 4.0, 3.14, 2.84, 2.84, 2.84, 3.14, 3.14, 3.35, 3.35, 3.72, 3.88, 3.88, 4.11, 3.6, 3.82, 3.53, 3.98, 4.47, 4.02, 3.58, 3.58, 2.8, 1.2, 0.63, 0.0, 1.8, 2.29, 2.4, 0.0, -1.56, -0.76, 1.48, 3.02, 1.54, 0.0, -0.78, -0.71, -0.7, 0.0, 0.0, 0.0, 0.0, 0.0, 0.0, 0.0, -0.54, -1.16, -2.07, -2.99, -3.69, -3.53, -2.82, -0.69, -0.69, 2.96, 2.96, 2.96, 2.96, 2.77, 2.77, 3.0, 3.45, 3.21, 3.21, 3.21, 3.21, 3.21, 2.77, 2.77, 2.29, 2.44, 2.12, 2.29, 2.29, 2.32, 2.16, 2.36, 1.67, 1.8, 1.65, 1.76, 1.63, 1.1, 1.1, 0.57, 0.57, 1.65, 2.32, 3.0, 3.45, 3.85, 4.45, 4.74, 5.21, 5.47, 4.84, 5.21, 4.29, 3.48, 2.84, 2.53, 2.79, 3.14, 3.35, 3.35, 3.35, 3.35, 3.35, 3.35, 3.6, 3.2, 3.2, 3.39, 3.53, 3.53, 3.53, 3.58, 2.68, 2.4, 1.4, 0.6, 0.6, 0.0, 0.85, 1.41, 2.4, 2.33, 0.76, 0.0, 0.79, 3.11, 3.73, 2.37, 0.0, 0.0, -0.68, -0.71, 0.0, 0.0, 0.0, 0.0, 0.6, 0.6, 0.0, -1.61, -2.53, -3.9, -3.8, -3.53, -3.61, -2.18, -2.18, 2.96, 2.96, 2.96, 2.96, 2.77, 2.77, 2.77, 2.77, 2.77, 3.21, 3.21, 3.21, 2.77, 2.77, 2.77, 2.29, 2.26, 1.63, 1.76, 2.29, 2.32, 2.16, 2.36, 1.67, 1.8, 1.65, 1.63, 1.73, 1.1, 0.56, 0.57, 0.57, 1.8, 2.32, 2.8, 3.47, 4.12, 4.45, 4.43, 5.21, 4.65, 4.65, 4.65, 4.81, 4.07, 2.86, 2.84, 2.79, 3.14, 3.72, 3.43, 3.43, 3.35, 3.14, 3.14, 3.07, 3.07, 3.07, 3.39, 3.53, 3.53, 3.13, 3.13, 2.54, 1.9, 1.4, 0.6, 0.8, 0.6, 0.99, 2.53, 3.55, 4.6, 4.65, 0.0, -2.4, -0.76, 0.77, 1.54, 2.18, 2.17, 1.36, 0.0, 0.0, 0.0, 0.63, 1.26, 1.26, 1.26, 0.57, -0.71, -2.21, -2.51, -3.79, -3.6, -3.61, -3.46, -3.47, 2.96, 2.96, 2.77, 2.77, 2.77, 2.77, 2.77, 2.77, 2.77, 2.77, 2.77, 2.77, 2.77, 2.77, 2.29, 2.29, 2.29, 1.63, 1.76, 1.76, 2.32, 2.32, 1.67, 1.67, 1.8, 1.76, 1.63, 1.18, 1.1, 0.56, 0.0, 0.57, 1.14, 1.67, 2.36, 3.22, 3.84, 4.12, 4.43, 4.37, 4.29, 4.55, 4.55, 5.15, 4.43, 4.11, 3.16, 3.14, 3.35, 3.43, 3.43, 3.43, 3.16, 3.14, 3.14, 3.45, 3.2, 3.2, 3.39, 3.53, 3.53, 3.13, 3.58, 2.0, 1.58, 1.4, 2.53, 1.26, 1.24, 2.53, 3.83, 5.36, 4.66, 5.45, 4.61, -2.47, -7.21, -5.52, -2.19, 0.71, 2.89, 2.81, 1.36, 0.0, 0.0, 0.6, 1.0, 1.2, 1.0, 0.53, 0.0, -1.84, -2.51, -3.79, -3.91, -4.28, -4.4, -3.46, 2.29, 2.29, 2.77, 2.77, 2.77, 2.77, 2.77, 2.77, 2.77, 2.77, 2.77, 2.77, 2.77, 2.77, 2.29, 2.29, 2.29, 1.63, 1.76, 1.76, 1.65, 1.8, 1.67, 1.67, 1.8, 1.76, 1.63, 1.18, 0.56, 0.0, 0.0, 0.57, 1.14, 1.84, 2.18, 3.08, 3.47, 3.84, 4.12, 4.11, 4.07, 4.37, 4.55, 4.29, 5.43, 4.74, 4.11, 4.0, 4.0, 3.43, 3.43, 3.16, 2.84, 2.84, 3.35, 3.35, 3.6, 3.39, 3.39, 3.53, 3.53, 3.53, 2.6, 3.2, 2.8, 2.53, 1.26, 1.24, 1.86, 2.54, 4.85, 4.8, 5.03, 5.86, 8.9, 4.6, -5.43, -9.75, -5.52, -0.71, 2.06, 3.47, 2.82, 0.73, 0.0, 0.0, 0.0, 0.0, 0.0, 0.0, -0.66, -2.0, -3.64, -4.71, -4.6, -4.6, -5.04, -4.4, 2.29, 2.29, 2.29, 2.29, 2.77, 2.77, 2.77, 2.77, 2.77, 2.96, 2.96, 2.77, 2.77, 2.29, 2.29, 2.29, 1.76, 1.63, 1.63, 1.76, 1.65, 1.8, 1.67, 1.67, 1.23, 1.2, 1.1, 1.18, 0.56, 0.0, 0.0, 0.57, 1.14, 1.7, 2.4, 3.08, 3.22, 3.47, 3.84, 4.12, 4.37, 4.29, 4.37, 4.37, 4.11, 5.06, 4.74, 4.37, 4.07, 3.78, 3.43, 2.84, 2.84, 2.84, 3.35, 3.35, 3.6, 3.82, 3.39, 3.53, 3.53, 3.53, 4.02, 3.58, 3.2, 3.6, 1.58, 3.16, 2.12, 3.51, 3.51, 4.57, 3.76, 4.44, 6.67, 10.39, 4.4, -3.45, -5.16, 0.0, 3.33, 5.6, 5.64, 4.31, 0.68, 0.0, -0.61, -0.59, -0.7, -1.52, -2.9, -3.69, -5.13, -5.52, -5.76, -5.64, -5.38, -5.38, 2.29, 2.29, 2.29, 2.29, 2.29, 2.77, 2.77, 2.77, 2.77, 2.96, 2.96, 2.77, 2.29, 2.29, 2.29, 1.76, 1.63, 1.63, 1.63, 1.76, 1.65, 1.8, 1.67, 1.67, 1.23, 1.2, 1.1, 1.18, 0.56, 0.0, 0.0, 0.56, 1.14, 2.18, 2.84, 2.82, 3.47, 3.47, 3.84, 4.43, 4.71, 4.37, 4.29, 4.07, 3.79, 3.78, 4.43, 4.71, 4.07, 3.48, 3.43, 2.84, 2.84, 2.84, 3.14, 3.35, 3.6, 3.82, 3.82, 3.39, 3.53, 3.53, 3.07, 3.2, 3.2, 2.84, 2.84, 3.35, 2.54, 2.6, 2.54, 3.2, 2.98, 3.2, 4.66, 5.73, 9.63, 4.66, -0.54, 0.0, 3.55, 6.2, 7.05, 6.66, 4.23, 0.0, -1.84, -2.07, -2.8, -3.6, -4.2, -5.18, -5.95, -6.57, -6.42, -6.24, -6.24, -6.24, 2.29, 2.29, 2.29, 2.29, 2.29, 2.77, 2.77, 2.77, 2.77, 2.77, 2.29, 2.29, 2.29, 2.29, 2.29, 1.76, 1.63, 1.63, 1.63, 1.76, 1.65, 1.8, 1.67, 1.14, 1.12, 1.2, 1.1, 0.59, 0.56, 0.0, 0.0, 0.56, 1.8, 2.82, 2.82, 3.04, 3.22, 3.72, 4.12, 4.45, 4.43, 4.71, 4.37, 4.07, 3.79, 3.49, 4.11, 4.11, 4.11, 4.07, 3.43, 3.43, 2.84, 3.14, 3.14, 3.35, 3.6, 3.82, 3.82, 3.39, 3.53, 3.53, 3.53, 3.82, 3.6, 2.84, 2.84, 3.82, 2.12, 2.12, 2.97, 2.6, 1.8, 2.35, 2.44, 2.41, 5.41, 8.68, 6.17, 3.09, 3.09, 4.94, 6.28, 6.5, 5.06, 2.06, -1.84, -3.49, -5.0, -5.28, -5.41, -5.86, -6.71, -7.18, -6.95, -6.32, -6.32, -6.32, 2.29, 2.29, 2.29, 2.29, 2.29, 2.29, 2.29, 2.29, 2.29, 2.29, 2.29, 2.29, 2.29, 2.29, 1.76, 1.63, 1.63, 1.1, 1.1, 1.2, 1.12, 1.23, 1.14, 1.14, 1.12, 1.2, 0.56, 0.59, 0.56, 0.0, 0.0, 1.1, 2.32, 3.04, 3.04, 3.22, 3.45, 3.85, 4.12, 4.45, 4.43, 4.43, 4.71, 4.11, 4.11, 3.79, 4.11, 4.11, 4.11, 4.07, 3.48, 3.43, 3.35, 3.14, 3.14, 3.6, 3.2, 3.39, 3.39, 3.39, 3.53, 3.53, 3.82, 3.82, 4.66, 4.24, 2.84, 1.26, 1.6, 1.6, 3.2, 1.74, 0.87, 1.6, 1.65, 2.47, 3.91, 6.35, 8.51, 7.82, 7.12, 6.27, 6.43, 6.51, 5.72, 3.59, -0.67, -4.09, -6.7, -6.28, -6.71, -5.94, -5.94, -6.64, -6.39, -5.72, -5.72, -5.72, 1.63, 1.63, 1.76, 2.29, 2.29, 2.29, 2.29, 2.29, 2.29, 2.29, 2.29, 2.29, 2.29, 1.76, 1.63, 1.63, 1.1, 1.1, 1.1, 1.1, 1.12, 1.23, 1.14, 1.23, 0.57, 0.56, 0.56, 0.56, 0.0, 0.0, 0.0, 1.12, 2.32, 2.8, 2.8, 3.45, 3.45, 3.85, 4.12, 4.45, 4.43, 4.43, 4.43, 4.11, 4.11, 4.11, 4.11, 4.11, 3.79, 3.79, 3.48, 3.43, 3.35, 3.14, 3.14, 3.2, 3.2, 3.39, 3.39, 3.53, 3.97, 3.98, 3.98, 4.77, 4.34, 4.24, 3.6, 1.26, 1.26, 1.6, 1.9, 1.98, 1.8, 1.7, 2.35, 2.54, 3.95, 4.81, 7.01, 8.56, 9.22, 8.74, 7.91, 7.82, 6.43, 4.38, 0.0, -5.09, -6.7, -7.47, -4.75, -3.48, -4.46, -5.46, -5.46, -5.09, -5.09, -5.09, 1.63, 1.63, 1.76, 1.76, 1.76, 2.29, 2.29, 2.29, 2.29, 2.29, 2.29, 2.29, 1.76, 1.63, 1.63, 1.1, 1.1, 1.1, 1.1, 1.1, 1.12, 1.23, 1.14, 0.57, 0.57, 0.56, 0.56, 0.56, 0.0, 0.0, 0.61, 1.12, 2.32, 2.8, 2.8, 3.45, 3.45, 3.85, 4.12, 4.12, 4.12, 4.43, 4.43, 4.12, 4.11, 4.11, 4.11, 3.79, 3.79, 3.49, 3.48, 3.78, 3.43, 3.14, 3.14, 3.07, 3.39, 3.39, 3.53, 3.53, 3.98, 4.02, 4.47, 4.92, 4.89, 4.47, 3.2, 3.2, 3.2, 1.7, 1.26, 2.6, 2.41, 2.76, 2.47, 3.2, 4.0, 5.51, 7.12, 7.73, 8.56, 9.17, 9.31, 10.14, 9.5, 4.15, -0.57, -3.32, -5.05, -1.86, -1.26, -1.86, -2.91, -3.45, -4.46, -4.46, -4.46, -4.46, 1.63, 1.63, 1.63, 1.76, 1.76, 1.76, 1.76, 2.29, 2.29, 1.76, 1.76, 1.76, 1.63, 1.63, 1.63, 1.1, 1.1, 1.1, 1.1, 1.1, 1.1, 1.12, 0.62, 0.57, 0.61, 0.56, 0.56, 0.0, 0.0, 0.0, 0.57, 1.12, 1.8, 2.32, 3.0, 3.45, 3.45, 3.85, 4.12, 4.12, 4.12, 4.12, 4.12, 4.12, 4.12, 4.11, 4.11, 4.11, 3.79, 3.49, 3.79, 3.48, 3.43, 3.14, 2.79, 3.07, 3.39, 3.39, 3.53, 3.97, 4.02, 4.02, 4.47, 5.36, 4.92, 4.92, 3.82, 3.82, 3.2, 1.6, 1.7, 1.6, 1.58, 3.16, 3.63, 3.9, 4.26, 5.64, 7.36, 7.82, 8.37, 8.61, 10.43, 12.57, 12.09, 4.96, -1.0, -0.8, 0.0, 0.0, -0.89, -1.79, -2.6, -3.07, -3.32, -2.91, -2.91, -2.91, 1.63, 1.63, 1.63, 1.63, 1.76, 1.76, 1.76, 1.76, 1.76, 1.76, 1.76, 1.63, 1.63, 1.1, 1.1, 1.1, 1.1, 1.1, 0.56, 0.56, 1.1, 0.57, 0.57, 0.57, 0.61, 0.56, 0.0, 0.0, 0.0, 0.0, 0.57, 1.12, 1.8, 2.32, 3.0, 3.45, 3.45, 3.85, 4.12, 4.12, 3.84, 4.12, 4.12, 4.12, 4.12, 3.83, 4.11, 4.11, 3.79, 3.49, 3.49, 3.48, 3.43, 3.16, 3.14, 3.07, 3.39, 3.39, 3.53, 3.53, 4.02, 4.02, 4.44, 5.24, 4.77, 4.47, 4.02, 3.47, 2.54, 2.12, 2.12, 1.6, 1.26, 1.58, 2.53, 4.11, 4.74, 5.69, 7.97, 8.46, 7.9, 8.29, 9.31, 10.87, 10.67, 5.72, 2.88, 3.07, 4.0, 3.48, 0.6, -1.7, -1.79, -2.24, -1.79, -1.34, -1.34, -1.34, 1.1, 1.18, 1.1, 1.1, 1.63, 1.76, 1.76, 1.76, 1.76, 1.76, 1.76, 1.63, 1.1, 1.1, 1.1, 1.1, 0.56, 0.56, 0.56, 0.56, 0.56, 0.57, 0.57, 0.57, 0.0, 0.0, 0.0, 0.0, 0.0, 0.0, 0.57, 1.12, 1.8, 2.32, 3.0, 3.45, 3.45, 3.85, 4.12, 4.12, 4.12, 4.12, 4.12, 4.12, 4.12, 4.12, 3.83, 4.11, 4.11, 3.49, 3.49, 3.48, 3.48, 2.84, 3.14, 3.2, 3.39, 3.39, 3.53, 3.58, 3.58, 4.02, 4.3, 4.6, 4.6, 4.15, 4.02, 3.58, 3.58, 3.51, 3.04, 2.23, 1.6, 1.6, 2.12, 3.83, 4.46, 5.09, 6.32, 7.82, 7.63, 7.63, 7.63, 6.35, 5.66, 2.68, 4.02, 3.32, 3.45, 4.87, 2.8, -0.63, -1.26, -0.95, -0.63, 0.0, 0.0, 0.0, 1.18, 1.18, 1.1, 1.1, 1.1, 1.76, 1.76, 1.76, 1.76, 1.76, 1.1, 1.1, 1.1, 1.1, 1.1, 0.56, 0.56, 0.56, 0.56, 0.56, 0.56, 0.57, 0.53, 0.0, 0.0, 0.0, 0.0, 0.0, 0.0, 0.0, 0.57, 1.12, 1.65, 2.32, 2.8, 3.0, 3.45, 3.85, 4.12, 4.12, 4.12, 3.84, 4.12, 4.12, 4.12, 4.12, 3.83, 3.83, 4.11, 3.49, 3.49, 3.2, 3.48, 3.43, 3.35, 3.6, 3.39, 3.39, 3.53, 3.58, 3.58, 3.58, 3.87, 4.27, 4.27, 3.35, 3.6, 3.04, 3.13, 3.13, 3.51, 4.15, 3.2, 2.24, 2.24, 3.51, 4.46, 4.81, 5.43, 5.94, 6.97, 7.12, 6.1, 4.01, 3.52, 3.58, 2.66, 1.2, 0.89, 1.2, 2.8, 1.16, 0.0, -0.63, -0.63, -0.89, -0.89, -0.89, 1.18, 1.18, 1.1, 1.1, 1.1, 1.2, 1.2, 1.2, 1.2, 1.1, 1.1, 1.1, 1.1, 0.56, 0.56, 0.56, 0.56, 0.56, 0.56, 0.56, 0.56, 0.57, 0.0, 0.0, 0.0, 0.0, 0.0, 0.0, 0.0, 0.57, 0.57, 1.12, 1.65, 2.14, 2.8, 3.0, 3.45, 3.45, 4.12, 4.12, 4.12, 3.84, 3.84, 4.12, 4.12, 4.12, 4.12, 3.83, 3.83, 3.78, 3.49, 3.49, 3.48, 3.43, 3.43, 3.35, 3.2, 3.39, 3.53, 3.58, 3.58, 3.58, 3.39, 3.72, 3.43, 3.43, 3.22, 2.6, 1.6, 2.12, 2.24, 2.6, 3.45, 3.32, 2.24, 3.04, 4.4, 5.46, 5.37, 5.3, 6.14, 7.12, 6.9, 3.21, 2.2, 1.84, 1.88, 1.2, 0.99, 1.34, 2.21, 3.38, 1.33, 0.57, -0.63, -1.79, -1.79, -1.79, 1.18, 1.18, 1.1, 1.1, 1.1, 1.2, 1.2, 1.2, 1.1, 1.1, 1.1, 0.56, 0.56, 0.56, 0.56, 0.56, 0.56, 0.56, 0.56, 0.56, 0.61, 0.57, 0.0, 0.0, 0.0, 0.0, 0.0, 0.0, 0.0, 0.57, 0.57, 1.12, 1.12, 1.65, 2.32, 2.8, 3.45, 3.45, 3.45, 3.45, 4.12, 4.12, 3.84, 3.84, 3.84, 4.12, 4.12, 4.12, 3.83, 3.49, 3.78, 3.49, 3.48, 3.16, 3.43, 3.35, 3.2, 3.39, 3.53, 3.09, 3.13, 3.13, 3.53, 3.6, 3.16, 2.84, 2.21, 2.4, 1.7, 1.86, 1.7, 1.34, 1.7, 2.6, 3.13, 3.58, 5.31, 6.4, 7.06, 6.32, 6.24, 7.24, 8.34, 9.06, 1.26, -0.0, 1.88, 2.91, 2.91, 3.13, 3.72, 4.02, 2.73, 1.49, 0.53, -1.2, -1.2, -1.2, 0.59, 0.59, 0.56, 1.1, 1.1, 1.1, 1.2, 1.1, 1.1, 0.56, 0.56, 0.56, 0.56, 0.56, 0.56, 0.56, 0.56, 0.56, 0.56, 0.56, 0.61, 0.57, 0.57, 0.0, 0.0, 0.0, 0.0, 0.0, 0.0, 0.0, 0.57, 0.57, 1.12, 1.65, 2.32, 2.8, 2.8, 3.22, 3.45, 3.45, 3.72, 3.72, 4.12, 3.84, 3.84, 3.84, 4.12, 4.12, 4.12, 3.49, 3.49, 3.49, 3.2, 3.48, 3.43, 3.35, 3.6, 3.32, 3.07, 3.07, 3.13, 3.13, 3.13, 2.91, 2.79, 2.23, 2.5, 2.4, 1.7, 1.49, 1.2, 1.2, 1.34, 2.24, 2.68, 2.68, 4.47, 5.59, 6.44, 7.02, 6.24, 7.36, 9.6, 13.88, 4.6, -0.76, 2.0, 4.87, 4.47, 3.97, 3.78, 4.71, 3.79, 2.2, 1.47, 0.0, 0.0, 0.0, 0.59, 0.59, 0.56, 0.56, 0.56, 0.56, 0.56, 0.56, 0.56, 0.56, 0.56, 0.56, 0.56, 0.56, 0.56, 0.0, 0.0, 0.56, 0.61, 0.61, 0.57, 0.57, 0.0, 0.0, 0.0, 0.0, 0.0, 0.0, 0.0, 0.0, 0.57, 0.57, 1.12, 1.65, 2.32, 2.8, 2.8, 2.8, 3.0, 3.45, 3.45, 3.72, 3.72, 4.12, 4.12, 3.84, 3.84, 3.84, 4.12, 4.12, 3.49, 3.49, 3.2, 3.15, 2.86, 2.84, 3.14, 3.07, 2.91, 3.07, 3.13, 3.13, 3.13, 3.07, 2.5, 2.21, 2.5, 2.4, 2.4, 1.6, 1.6, 1.7, 1.79, 2.24, 2.68, 2.24, 2.24, 3.04, 4.46, 5.69, 6.32, 7.01, 8.51, 12.05, 10.47, 0.0, 2.04, 4.73, 5.2, 3.6, 2.53, 4.07, 4.07, 3.06, 1.49, 0.72, 0.72, 0.72, 0.59, 0.59, 0.56, 0.56, 0.56, 0.56, 0.56, 0.56, 0.56, 0.56, 0.56, 0.0, 0.0, 0.0, 0.0, 0.0, 0.0, 0.0, 0.57, 0.57, 0.57, 0.57, 0.0, 0.0, 0.0, 0.0, 0.0, 0.0, 0.0, 0.0, 0.57, 1.12, 1.76, 1.76, 2.29, 3.0, 2.8, 2.8, 3.0, 3.0, 3.45, 3.45, 3.45, 4.12, 4.12, 4.12, 3.84, 3.84, 3.84, 4.12, 3.49, 3.49, 3.12, 2.86, 2.86, 3.16, 3.14, 3.07, 2.91, 3.07, 2.68, 2.68, 2.68, 2.68, 2.4, 2.5, 2.5, 2.15, 2.4, 1.79, 1.79, 1.79, 2.24, 2.24, 2.68, 2.68, 2.24, 2.24, 2.23, 3.79, 4.71, 4.8, 5.45, 6.4, 10.52, 4.67, 1.79, 2.91, 4.0, 4.11, 2.51, 2.66, 3.44, 3.16, 1.54, 0.73, 0.73, 0.73, 0.59, 0.59, 0.56, 0.56, 0.56, 0.56, 0.56, 0.56, 0.0, 0.0, 0.0, 0.0, 0.0, 0.0, 0.0, 0.0, 0.0, 0.0, 0.57, 0.57, 0.0, 0.0, 0.0, 0.0, 0.0, 0.0, 0.0, 0.0, 0.0, 0.0, 0.57, 1.2, 1.76, 1.76, 2.29, 2.29, 3.0, 3.0, 3.0, 3.0, 3.45, 3.45, 3.45, 3.85, 3.85, 4.12, 4.12, 3.84, 3.84, 3.47, 3.76, 3.49, 2.84, 2.86, 2.86, 2.86, 2.84, 2.79, 2.5, 2.4, 2.6, 2.68, 2.68, 2.68, 2.6, 2.4, 2.15, 2.15, 2.23, 1.2, 1.34, 1.34, 1.79, 2.24, 2.24, 2.24, 1.7, 1.34, 1.6, 3.07, 3.33, 3.21, 3.14, 4.63, 6.8, 8.07, 4.71, 3.32, 4.12, 4.56, 3.55, 1.98, 2.06, 2.25, 1.5, 0.74, 0.74, 0.74, 0.0, 0.0, 0.0, 0.0, 0.0, 0.0, 0.0, 0.0, 0.0, 0.0, 0.0, 0.0, 0.0, 0.0, 0.0, 0.0, 0.0, 0.0, 0.57, 0.57, 0.0, 0.0, 0.0, 0.0, 0.0, 0.0, 0.0, 0.0, 0.0, 0.57, 0.57, 1.1, 1.63, 1.63, 1.76, 2.29, 2.29, 2.77, 2.77, 2.77, 3.45, 3.45, 3.45, 3.45, 3.85, 4.12, 4.12, 3.84, 3.84, 3.47, 3.47, 3.49, 2.84, 2.84, 2.86, 2.48, 2.51, 2.53, 2.5, 2.4, 2.6, 2.17, 2.24, 2.24, 2.24, 2.17, 2.4, 1.9, 2.23, 1.86, 2.12, 1.34, 1.34, 1.34, 1.34, 1.34, 1.2, 1.2, 1.34, 1.58, 2.98, 3.15, 3.11, 4.04, 5.85, 8.18, 6.9, 5.0, 5.35, 5.46, 4.2, 2.69, 1.4, 0.78, 0.0, 0.0, 0.0, 0.0, 0.0, 0.0, 0.0, 0.0, 0.0, 0.0, 0.0, 0.0, 0.0, 0.0, 0.0, 0.0, 0.0, 0.0, 0.0, 0.0, 0.0, 0.0, 0.0, 0.57, 0.0, 0.0, 0.0, 0.0, 0.0, 0.0, 0.0, 0.0, 0.0, 0.57, 0.61, 1.1, 1.18, 1.73, 1.63, 2.29, 2.29, 2.29, 2.77, 2.96, 2.96, 3.21, 3.45, 3.45, 3.45, 3.85, 4.12, 3.47, 3.47, 3.47, 3.47, 2.82, 3.08, 2.84, 2.44, 2.22, 2.23, 2.23, 2.21, 1.9, 1.86, 2.12, 2.12, 1.79, 1.79, 2.12, 1.86, 2.23, 1.9, 1.86, 1.7, 0.89, 1.34, 2.68, 1.2, 0.89, 0.89, 1.2, 0.8, 0.6, 1.49, 2.31, 2.28, 4.01, 6.44, 8.71, 8.39, 7.08, 6.87, 7.02, 6.21, 4.23, 2.82, 1.39, 0.0, -0.69, -0.69, -0.69, 0.0, 0.0, 0.0, 0.0, 0.0, 0.0, 0.0, 0.0, 0.0, 0.0, 0.0, 0.0, 0.0, 0.0, 0.0, 0.0, 0.0, 0.0, 0.0, 0.0, 0.0, 0.0, 0.0, 0.0, 0.0, 0.0, 0.0, 0.0, 0.0, 0.57, 0.61, 1.1, 1.18, 1.18, 1.73, 1.73, 2.26, 2.26, 2.96, 2.96, 2.96, 3.42, 3.45, 3.45, 3.45, 3.45, 3.45, 3.72, 3.47, 3.47, 3.04, 2.82, 2.82, 2.84, 2.4, 2.44, 2.22, 1.8, 1.84, 1.61, 1.9, 1.86, 1.7, 1.7, 1.79, 1.79, 1.7, 1.86, 1.58, 1.58, 1.6, 1.79, 2.24, 3.13, 1.2, 1.2, 0.89, 0.63, 0.63, 0.6, 0.0, 0.79, 2.31, 3.1, 6.17, 9.6, 10.35, 9.31, 8.76, 8.66, 8.2, 6.9, 5.6, 3.47, 1.4, -0.76, -0.76, -0.76, 0.0, 0.0, 0.0, 0.0, 0.0, 0.0, 0.0, 0.0, 0.0, 0.0, 0.0, 0.0, 0.0, 0.0, 0.0, 0.0, 0.0, 0.0, 0.0, 0.0, 0.0, 0.0, 0.0, 0.0, 0.0, 0.0, 0.0, 0.0, 0.0, 0.57, 0.61, 1.1, 1.18, 1.18, 1.73, 1.73, 2.26, 2.26, 2.96, 2.96, 2.96, 3.42, 3.45, 3.45, 3.45, 3.45, 3.45, 3.72, 3.47, 3.47, 3.04, 2.82, 2.82, 2.84, 2.4, 2.44, 2.22, 1.8, 1.84, 1.61, 1.9, 1.86, 1.7, 1.7, 1.79, 1.79, 1.7, 1.86, 1.58, 1.58, 1.6, 1.79, 2.24, 3.13, 1.2, 1.2, 0.89, 0.63, 0.63, 0.6, 0.0, 0.72, 1.6, 3.11, 5.41, 8.5, 10.35, 10.15, 9.31, 9.31, 9.49, 8.61, 8.06, 6.4, 3.95, 0.0, 0.0, 0.0]}]